Time,TemperatureF,DewpointF,PressureIn,WindDirection,WindDirectionDegrees,WindSpeedMPH,WindSpeedGustMPH,Humidity,HourlyPrecipIn,Conditions,Clouds,dailyrainin,SoftwareType,DateUTC
2013-01-31 00:00:00,74.3,69.5,29.97,SSE,157,6.0,6.0,85,0.00,,,0.00,Wunderground v.1.15,2013-01-31 05:00:00,
2013-01-31 00:02:00,74.3,69.5,29.97,SSE,167,2.0,6.0,85,0.00,,,0.00,Wunderground v.1.15,2013-01-31 05:02:00,
2013-01-31 00:03:00,74.3,69.5,29.98,SSE,168,2.0,6.0,85,0.00,,,0.00,Wunderground v.1.15,2013-01-31 05:03:00,
2013-01-31 00:06:00,74.3,69.5,29.98,SSE,151,4.0,6.0,85,0.00,,,0.00,Wunderground v.1.15,2013-01-31 05:06:00,
2013-01-31 00:08:00,74.3,69.5,29.97,South,175,8.0,8.0,85,0.00,,,0.00,Wunderground v.1.15,2013-01-31 05:08:00,
2013-01-31 00:11:00,74.3,69.5,29.98,SSW,195,5.0,5.0,85,0.00,,,0.00,Wunderground v.1.15,2013-01-31 05:11:00,
2013-01-31 00:12:00,74.3,69.5,29.98,SE,146,4.0,5.0,85,0.00,,,0.00,Wunderground v.1.15,2013-01-31 05:12:00,
2013-01-31 00:14:00,74.3,69.5,29.97,South,169,4.0,5.0,85,0.00,,,0.00,Wunderground v.1.15,2013-01-31 05:14:00,
2013-01-31 00:16:00,74.3,69.5,29.97,SE,145,6.0,6.0,85,0.00,,,0.00,Wunderground v.1.15,2013-01-31 05:16:00,
2013-01-31 00:18:00,74.3,69.5,29.97,South,183,2.0,6.0,85,0.00,,,0.00,Wunderground v.1.15,2013-01-31 05:18:00,
2013-01-31 00:19:00,74.3,69.5,29.97,South,177,2.0,6.0,85,0.00,,,0.00,Wunderground v.1.15,2013-01-31 05:19:00,
2013-01-31 00:21:00,74.3,69.5,29.97,South,191,2.0,4.0,85,0.00,,,0.00,Wunderground v.1.15,2013-01-31 05:21:00,
2013-01-31 00:22:00,74.3,69.5,29.97,South,189,3.0,4.0,85,0.00,,,0.00,Wunderground v.1.15,2013-01-31 05:22:00,
2013-01-31 00:24:00,74.3,69.5,29.97,South,182,4.0,4.0,85,0.00,,,0.00,Wunderground v.1.15,2013-01-31 05:24:00,
2013-01-31 00:26:00,74.3,69.8,29.98,South,185,2.0,4.0,86,0.00,,,0.00,Wunderground v.1.15,2013-01-31 05:26:00,
2013-01-31 00:28:00,74.3,69.8,29.97,SSE,166,4.0,5.0,86,0.00,,,0.00,Wunderground v.1.15,2013-01-31 05:28:00,
2013-01-31 00:29:00,74.3,69.8,29.97,South,182,4.0,5.0,86,0.00,,,0.00,Wunderground v.1.15,2013-01-31 05:29:00,
2013-01-31 00:30:00,74.3,69.8,29.97,SSE,148,4.0,4.0,86,0.00,,,0.00,Wunderground v.1.15,2013-01-31 05:30:00,
2013-01-31 00:31:00,74.3,69.8,29.97,South,170,4.0,4.0,86,0.00,,,0.00,Wunderground v.1.15,2013-01-31 05:31:00,
2013-01-31 00:35:00,74.3,69.8,29.97,SE,144,2.0,4.0,86,0.00,,,0.00,Wunderground v.1.15,2013-01-31 05:35:00,
2013-01-31 00:36:00,74.3,69.8,29.97,SSE,154,0.0,4.0,86,0.00,,,0.00,Wunderground v.1.15,2013-01-31 05:36:00,
2013-01-31 00:37:00,74.3,69.8,29.97,SSE,154,1.0,4.0,86,0.00,,,0.00,Wunderground v.1.15,2013-01-31 05:37:00,
2013-01-31 00:40:00,74.3,69.8,29.97,South,179,5.0,5.0,86,0.00,,,0.00,Wunderground v.1.15,2013-01-31 05:40:00,
2013-01-31 00:41:00,74.3,69.8,29.97,SSE,154,3.0,5.0,86,0.00,,,0.00,Wunderground v.1.15,2013-01-31 05:41:00,
2013-01-31 00:42:00,74.4,69.9,29.97,South,185,5.0,5.0,86,0.00,,,0.00,Wunderground v.1.15,2013-01-31 05:42:00,
2013-01-31 00:43:00,74.4,69.9,29.97,SSW,195,3.0,5.0,86,0.00,,,0.00,Wunderground v.1.15,2013-01-31 05:43:00,
2013-01-31 00:47:00,74.5,70.0,29.97,South,185,3.0,5.0,86,0.00,,,0.00,Wunderground v.1.15,2013-01-31 05:47:00,
2013-01-31 00:48:00,74.5,70.0,29.97,SSE,165,2.0,5.0,86,0.00,,,0.00,Wunderground v.1.15,2013-01-31 05:48:00,
2013-01-31 00:49:00,74.5,70.0,29.97,South,186,3.0,5.0,86,0.00,,,0.00,Wunderground v.1.15,2013-01-31 05:49:00,
2013-01-31 00:50:00,74.5,70.0,29.97,South,189,2.0,3.0,86,0.00,,,0.00,Wunderground v.1.15,2013-01-31 05:50:00,
2013-01-31 00:54:00,74.5,70.4,29.97,SSE,160,1.0,4.0,87,0.00,,,0.00,Wunderground v.1.15,2013-01-31 05:54:00,
2013-01-31 00:55:00,74.5,70.4,29.97,SSW,203,6.0,6.0,87,0.00,,,0.00,Wunderground v.1.15,2013-01-31 05:55:00,
2013-01-31 00:56:00,74.5,70.4,29.97,South,177,3.0,6.0,87,0.00,,,0.00,Wunderground v.1.15,2013-01-31 05:56:00,
2013-01-31 00:57:00,74.5,70.4,29.97,South,183,4.0,6.0,87,0.00,,,0.00,Wunderground v.1.15,2013-01-31 05:57:00,
2013-01-31 01:00:00,74.5,70.4,29.97,South,172,3.0,3.0,87,0.00,,,0.00,Wunderground v.1.15,2013-01-31 06:00:00,
2013-01-31 01:01:00,74.6,70.5,29.97,South,173,1.0,3.0,87,0.00,,,0.00,Wunderground v.1.15,2013-01-31 06:01:00,
2013-01-31 01:03:00,74.6,70.5,29.97,South,181,4.0,4.0,87,0.00,,,0.00,Wunderground v.1.15,2013-01-31 06:03:00,
2013-01-31 01:05:00,74.6,70.5,29.97,SSE,159,1.0,4.0,87,0.00,,,0.00,Wunderground v.1.15,2013-01-31 06:05:00,
2013-01-31 01:06:00,74.6,70.5,29.97,SSE,165,4.0,4.0,87,0.00,,,0.00,Wunderground v.1.15,2013-01-31 06:06:00,
2013-01-31 01:07:00,74.6,70.5,29.97,SSE,148,1.0,4.0,87,0.00,,,0.00,Wunderground v.1.15,2013-01-31 06:07:00,
2013-01-31 01:08:00,74.6,70.5,29.97,SSE,151,3.0,4.0,87,0.00,,,0.00,Wunderground v.1.15,2013-01-31 06:08:00,
2013-01-31 01:12:00,74.6,70.1,29.97,SSW,198,2.0,3.0,86,0.00,,,0.00,Wunderground v.1.15,2013-01-31 06:12:00,
2013-01-31 01:14:00,74.6,70.1,29.97,South,187,3.0,3.0,86,0.00,,,0.00,Wunderground v.1.15,2013-01-31 06:14:00,
2013-01-31 01:15:00,74.6,70.1,29.97,South,171,6.0,6.0,86,0.00,,,0.00,Wunderground v.1.15,2013-01-31 06:15:00,
2013-01-31 01:17:00,74.6,70.1,29.97,South,185,3.0,6.0,86,0.00,,,0.00,Wunderground v.1.15,2013-01-31 06:17:00,
2013-01-31 01:18:00,74.6,70.1,29.97,SSW,198,0.0,6.0,86,0.00,,,0.00,Wunderground v.1.15,2013-01-31 06:18:00,
2013-01-31 01:20:00,74.6,70.1,29.97,South,182,2.0,3.0,86,0.00,,,0.00,Wunderground v.1.15,2013-01-31 06:20:00,
2013-01-31 01:23:00,74.6,70.1,29.97,South,177,3.0,3.0,86,0.00,,,0.00,Wunderground v.1.15,2013-01-31 06:23:00,
2013-01-31 01:25:00,74.6,70.1,29.97,SSE,165,1.0,4.0,86,0.00,,,0.00,Wunderground v.1.15,2013-01-31 06:25:00,
2013-01-31 01:26:00,74.6,70.1,29.97,SSE,160,2.0,4.0,86,0.00,,,0.00,Wunderground v.1.15,2013-01-31 06:26:00,
2013-01-31 01:27:00,74.5,70.0,29.97,SSE,160,1.0,4.0,86,0.00,,,0.00,Wunderground v.1.15,2013-01-31 06:27:00,
2013-01-31 01:31:00,74.6,70.1,29.97,South,186,3.0,3.0,86,0.00,,,0.00,Wunderground v.1.15,2013-01-31 06:31:00,
2013-01-31 01:32:00,74.5,70.0,29.97,South,190,3.0,3.0,86,0.00,,,0.00,Wunderground v.1.15,2013-01-31 06:32:00,
2013-01-31 01:34:00,74.5,70.0,29.97,South,189,7.0,7.0,86,0.00,,,0.00,Wunderground v.1.15,2013-01-31 06:34:00,
2013-01-31 01:35:00,74.5,70.0,29.97,South,173,3.0,7.0,86,0.00,,,0.00,Wunderground v.1.15,2013-01-31 06:35:00,
2013-01-31 01:37:00,74.4,69.9,29.97,SSE,155,1.0,7.0,86,0.00,,,0.00,Wunderground v.1.15,2013-01-31 06:37:00,
2013-01-31 01:39:00,74.5,70.0,29.98,South,183,1.0,7.0,86,0.00,,,0.00,Wunderground v.1.15,2013-01-31 06:39:00,
2013-01-31 01:40:00,74.4,69.9,29.97,SSW,198,3.0,3.0,86,0.00,,,0.00,Wunderground v.1.15,2013-01-31 06:40:00,
2013-01-31 01:42:00,74.5,70.0,29.97,South,171,4.0,4.0,86,0.00,,,0.00,Wunderground v.1.15,2013-01-31 06:42:00,
2013-01-31 01:44:00,74.4,69.9,29.97,SSW,193,0.0,4.0,86,0.00,,,0.00,Wunderground v.1.15,2013-01-31 06:44:00,
2013-01-31 01:46:00,74.5,70.0,29.97,SSW,204,2.0,4.0,86,0.00,,,0.00,Wunderground v.1.15,2013-01-31 06:46:00,
2013-01-31 01:50:00,74.4,69.9,29.97,South,181,2.0,2.0,86,0.00,,,0.00,Wunderground v.1.15,2013-01-31 06:50:00,
2013-01-31 01:51:00,74.4,69.9,29.97,South,175,2.0,2.0,86,0.00,,,0.00,Wunderground v.1.15,2013-01-31 06:51:00,
2013-01-31 01:52:00,74.4,69.9,29.97,SE,125,1.0,2.0,86,0.00,,,0.00,Wunderground v.1.15,2013-01-31 06:52:00,
2013-01-31 01:53:00,74.3,69.8,29.97,SSW,195,2.0,2.0,86,0.00,,,0.00,Wunderground v.1.15,2013-01-31 06:53:00,
2013-01-31 01:57:00,74.3,70.2,29.97,SSE,158,1.0,4.0,87,0.00,,,0.00,Wunderground v.1.15,2013-01-31 06:57:00,
2013-01-31 01:58:00,74.3,70.2,29.97,South,173,1.0,4.0,87,0.00,,,0.00,Wunderground v.1.15,2013-01-31 06:58:00,
2013-01-31 02:01:00,74.2,70.1,29.96,South,177,1.0,2.0,87,0.00,,,0.00,Wunderground v.1.15,2013-01-31 07:01:00,
2013-01-31 02:02:00,74.3,70.2,29.96,South,177,1.0,2.0,87,0.00,,,0.00,Wunderground v.1.15,2013-01-31 07:02:00,
2013-01-31 02:03:00,74.3,70.2,29.96,South,180,1.0,5.0,87,0.00,,,0.00,Wunderground v.1.15,2013-01-31 07:03:00,
2013-01-31 02:06:00,74.3,70.2,29.96,South,189,2.0,5.0,87,0.00,,,0.00,Wunderground v.1.15,2013-01-31 07:06:00,
2013-01-31 02:07:00,74.3,70.2,29.96,South,189,2.0,5.0,87,0.00,,,0.00,Wunderground v.1.15,2013-01-31 07:07:00,
2013-01-31 02:08:00,74.3,70.2,29.96,South,189,1.0,5.0,87,0.00,,,0.00,Wunderground v.1.15,2013-01-31 07:08:00,
2013-01-31 02:11:00,74.3,70.2,29.96,SSE,148,3.0,4.0,87,0.00,,,0.00,Wunderground v.1.15,2013-01-31 07:11:00,
2013-01-31 02:12:00,74.2,70.1,29.96,SSE,153,3.0,4.0,87,0.00,,,0.00,Wunderground v.1.15,2013-01-31 07:12:00,
2013-01-31 02:13:00,74.3,70.2,29.95,South,172,3.0,4.0,87,0.00,,,0.00,Wunderground v.1.15,2013-01-31 07:13:00,
2013-01-31 02:16:00,74.2,70.1,29.96,South,174,3.0,5.0,87,0.00,,,0.00,Wunderground v.1.15,2013-01-31 07:16:00,
2013-01-31 02:17:00,74.2,70.1,29.96,SE,141,1.0,5.0,87,0.00,,,0.00,Wunderground v.1.15,2013-01-31 07:17:00,
2013-01-31 02:18:00,74.2,70.1,29.95,SE,142,0.0,5.0,87,0.00,,,0.00,Wunderground v.1.15,2013-01-31 07:18:00,
2013-01-31 02:19:00,74.3,70.2,29.96,SSE,165,4.0,7.0,87,0.00,,,0.00,Wunderground v.1.15,2013-01-31 07:19:00,
2013-01-31 02:22:00,74.3,70.2,29.95,SSE,160,1.0,3.0,87,0.00,,,0.00,Wunderground v.1.15,2013-01-31 07:22:00,
2013-01-31 02:23:00,74.3,70.2,29.95,SSE,160,4.0,5.0,87,0.00,,,0.00,Wunderground v.1.15,2013-01-31 07:23:00,
2013-01-31 02:24:00,74.3,70.2,29.96,South,169,2.0,5.0,87,0.00,,,0.00,Wunderground v.1.15,2013-01-31 07:24:00,
2013-01-31 02:27:00,74.3,70.2,29.96,South,190,1.0,5.0,87,0.00,,,0.00,Wunderground v.1.15,2013-01-31 07:27:00,
2013-01-31 02:28:00,74.3,70.2,29.96,South,191,3.0,5.0,87,0.00,,,0.00,Wunderground v.1.15,2013-01-31 07:28:00,
2013-01-31 02:29:00,74.2,70.1,29.96,South,190,1.0,5.0,87,0.00,,,0.00,Wunderground v.1.15,2013-01-31 07:29:00,
2013-01-31 02:30:00,74.3,70.2,29.96,South,177,1.0,5.0,87,0.00,,,0.00,Wunderground v.1.15,2013-01-31 07:30:00,
2013-01-31 02:32:00,74.2,70.1,29.96,SSW,194,2.0,5.0,87,0.00,,,0.00,Wunderground v.1.15,2013-01-31 07:32:00,
2013-01-31 02:33:00,74.2,70.1,29.96,South,181,1.0,5.0,87,0.00,,,0.00,Wunderground v.1.15,2013-01-31 07:33:00,
2013-01-31 02:34:00,74.2,70.1,29.96,South,181,1.0,5.0,87,0.00,,,0.00,Wunderground v.1.15,2013-01-31 07:34:00,
2013-01-31 02:36:00,74.2,70.1,29.96,South,189,1.0,5.0,87,0.00,,,0.00,Wunderground v.1.15,2013-01-31 07:36:00,
2013-01-31 02:38:00,74.1,70.0,29.96,SSW,198,1.0,5.0,87,0.00,,,0.00,Wunderground v.1.15,2013-01-31 07:38:00,
2013-01-31 02:39:00,74.0,69.9,29.95,South,176,1.0,5.0,87,0.00,,,0.00,Wunderground v.1.15,2013-01-31 07:39:00,
2013-01-31 02:41:00,73.9,69.8,29.95,South,184,0.0,4.0,87,0.00,,,0.00,Wunderground v.1.15,2013-01-31 07:41:00,
2013-01-31 02:43:00,73.8,69.7,29.95,South,184,1.0,4.0,87,0.00,,,0.00,Wunderground v.1.15,2013-01-31 07:43:00,
2013-01-31 02:45:00,73.7,69.9,29.95,South,191,0.0,4.0,88,0.00,,,0.00,Wunderground v.1.15,2013-01-31 07:45:00,
2013-01-31 02:46:00,73.6,69.8,29.95,South,191,3.0,4.0,88,0.00,,,0.00,Wunderground v.1.15,2013-01-31 07:46:00,
2013-01-31 02:48:00,73.6,69.8,29.95,SSW,194,1.0,4.0,88,0.00,,,0.00,Wunderground v.1.15,2013-01-31 07:48:00,
2013-01-31 02:49:00,73.5,69.7,29.95,SSW,194,0.0,4.0,88,0.00,,,0.00,Wunderground v.1.15,2013-01-31 07:49:00,
2013-01-31 02:50:00,73.5,69.7,29.95,SSW,194,2.0,2.0,88,0.00,,,0.00,Wunderground v.1.15,2013-01-31 07:50:00,
2013-01-31 02:52:00,73.4,69.6,29.95,South,185,2.0,2.0,88,0.00,,,0.00,Wunderground v.1.15,2013-01-31 07:52:00,
2013-01-31 02:54:00,73.3,69.5,29.95,South,185,1.0,3.0,88,0.00,,,0.00,Wunderground v.1.15,2013-01-31 07:54:00,
2013-01-31 02:55:00,73.3,69.9,29.95,South,185,1.0,3.0,89,0.00,,,0.00,Wunderground v.1.15,2013-01-31 07:55:00,
2013-01-31 02:57:00,73.2,69.8,29.95,South,185,1.0,3.0,89,0.00,,,0.00,Wunderground v.1.15,2013-01-31 07:57:00,
2013-01-31 02:59:00,73.2,69.8,29.95,South,185,1.0,3.0,89,0.00,,,0.00,Wunderground v.1.15,2013-01-31 07:59:00,
2013-01-31 03:00:00,73.1,69.7,29.95,South,185,1.0,3.0,89,0.00,,,0.00,Wunderground v.1.15,2013-01-31 08:00:00,
2013-01-31 03:03:00,73.0,69.6,29.95,South,175,2.0,3.0,89,0.00,,,0.00,Wunderground v.1.15,2013-01-31 08:03:00,
2013-01-31 03:04:00,72.9,69.5,29.95,South,175,3.0,3.0,89,0.00,,,0.00,Wunderground v.1.15,2013-01-31 08:04:00,
2013-01-31 03:05:00,72.9,69.5,29.95,South,181,1.0,4.0,89,0.00,,,0.00,Wunderground v.1.15,2013-01-31 08:05:00,
2013-01-31 03:06:00,72.9,69.5,29.95,South,189,3.0,4.0,89,0.00,,,0.00,Wunderground v.1.15,2013-01-31 08:06:00,
2013-01-31 03:08:00,72.8,69.7,29.95,South,189,0.0,4.0,90,0.00,,,0.00,Wunderground v.1.15,2013-01-31 08:08:00,
2013-01-31 03:09:00,72.8,69.7,29.95,South,187,1.0,4.0,90,0.00,,,0.00,Wunderground v.1.15,2013-01-31 08:09:00,
2013-01-31 03:10:00,72.8,69.7,29.95,South,189,1.0,1.0,90,0.00,,,0.00,Wunderground v.1.15,2013-01-31 08:10:00,
2013-01-31 03:11:00,72.7,69.6,29.95,South,189,1.0,1.0,90,0.00,,,0.00,Wunderground v.1.15,2013-01-31 08:11:00,
2013-01-31 03:13:00,72.7,69.6,29.94,South,184,1.0,2.0,90,0.00,,,0.00,Wunderground v.1.15,2013-01-31 08:13:00,
2013-01-31 03:14:00,72.7,69.6,29.94,South,184,0.0,2.0,90,0.00,,,0.00,Wunderground v.1.15,2013-01-31 08:14:00,
2013-01-31 03:15:00,72.6,69.5,29.94,SSE,167,1.0,2.0,90,0.00,,,0.00,Wunderground v.1.15,2013-01-31 08:15:00,
2013-01-31 03:16:00,72.6,69.5,29.94,SSE,167,2.0,2.0,90,0.00,,,0.00,Wunderground v.1.15,2013-01-31 08:16:00,
2013-01-31 03:19:00,72.6,69.5,29.94,South,174,1.0,4.0,90,0.00,,,0.00,Wunderground v.1.15,2013-01-31 08:19:00,
2013-01-31 03:20:00,72.6,69.5,29.94,SSE,155,2.0,3.0,90,0.00,,,0.00,Wunderground v.1.15,2013-01-31 08:20:00,
2013-01-31 03:21:00,72.6,69.8,29.94,SSE,167,1.0,4.0,91,0.00,,,0.00,Wunderground v.1.15,2013-01-31 08:21:00,
2013-01-31 03:25:00,72.5,69.7,29.94,SE,137,4.0,4.0,91,0.00,,,0.00,Wunderground v.1.15,2013-01-31 08:25:00,
2013-01-31 03:26:00,72.5,69.7,29.94,South,174,4.0,4.0,91,0.00,,,0.00,Wunderground v.1.15,2013-01-31 08:26:00,
2013-01-31 03:30:00,72.5,69.7,29.93,South,171,1.0,2.0,91,0.00,,,0.00,Wunderground v.1.15,2013-01-31 08:30:00,
2013-01-31 03:31:00,72.6,69.8,29.93,SSE,166,2.0,3.0,91,0.00,,,0.00,Wunderground v.1.15,2013-01-31 08:31:00,
2013-01-31 03:32:00,72.6,69.8,29.93,South,175,4.0,4.0,91,0.00,,,0.00,Wunderground v.1.15,2013-01-31 08:32:00,
2013-01-31 03:35:00,72.6,70.1,29.94,SSW,205,3.0,5.0,92,0.00,,,0.00,Wunderground v.1.15,2013-01-31 08:35:00,
2013-01-31 03:36:00,72.6,70.1,29.94,SW,222,4.0,5.0,92,0.00,,,0.00,Wunderground v.1.15,2013-01-31 08:36:00,
2013-01-31 03:37:00,72.6,70.1,29.94,South,181,2.0,5.0,92,0.00,,,0.00,Wunderground v.1.15,2013-01-31 08:37:00,
2013-01-31 03:41:00,72.7,70.2,29.94,SSW,198,1.0,5.0,92,0.00,,,0.00,Wunderground v.1.15,2013-01-31 08:41:00,
2013-01-31 03:42:00,72.7,70.2,29.94,SSW,194,0.0,5.0,92,0.00,,,0.00,Wunderground v.1.15,2013-01-31 08:42:00,
2013-01-31 03:46:00,72.6,70.1,29.94,South,183,0.0,5.0,92,0.00,,,0.00,Wunderground v.1.15,2013-01-31 08:46:00,
2013-01-31 03:47:00,72.6,70.1,29.94,South,184,5.0,5.0,92,0.00,,,0.00,Wunderground v.1.15,2013-01-31 08:47:00,
2013-01-31 03:51:00,72.6,70.1,29.94,South,188,1.0,3.0,92,0.00,,,0.00,Wunderground v.1.15,2013-01-31 08:51:00,
2013-01-31 03:52:00,72.6,70.1,29.94,South,179,2.0,3.0,92,0.00,,,0.00,Wunderground v.1.15,2013-01-31 08:52:00,
2013-01-31 03:56:00,72.5,70.0,29.95,South,190,1.0,3.0,92,0.00,,,0.00,Wunderground v.1.15,2013-01-31 08:56:00,
2013-01-31 03:57:00,72.5,70.0,29.94,South,190,1.0,3.0,92,0.00,,,0.00,Wunderground v.1.15,2013-01-31 08:57:00,
2013-01-31 04:01:00,72.4,69.9,29.95,South,190,1.0,1.0,92,0.00,,,0.00,Wunderground v.1.15,2013-01-31 09:01:00,
2013-01-31 04:02:00,72.4,69.9,29.95,South,190,0.0,1.0,92,0.00,,,0.00,Wunderground v.1.15,2013-01-31 09:02:00,
2013-01-31 04:06:00,72.3,69.8,29.95,South,190,3.0,3.0,92,0.00,,,0.00,Wunderground v.1.15,2013-01-31 09:06:00,
2013-01-31 04:07:00,72.3,69.8,29.94,South,190,1.0,4.0,92,0.00,,,0.00,Wunderground v.1.15,2013-01-31 09:07:00,
2013-01-31 04:08:00,72.3,69.8,29.94,South,190,4.0,4.0,92,0.00,,,0.00,Wunderground v.1.15,2013-01-31 09:08:00,
2013-01-31 04:11:00,72.2,69.7,29.94,South,186,4.0,4.0,92,0.00,,,0.00,Wunderground v.1.15,2013-01-31 09:11:00,
2013-01-31 04:12:00,72.2,69.7,29.94,South,185,1.0,4.0,92,0.00,,,0.00,Wunderground v.1.15,2013-01-31 09:12:00,
2013-01-31 04:13:00,72.2,69.7,29.94,SSE,163,1.0,4.0,92,0.00,,,0.00,Wunderground v.1.15,2013-01-31 09:13:00,
2013-01-31 04:17:00,72.2,70.1,29.94,SSW,200,3.0,4.0,93,0.00,,,0.00,Wunderground v.1.15,2013-01-31 09:17:00,
2013-01-31 04:18:00,72.2,70.1,29.94,SSW,194,2.0,5.0,93,0.00,,,0.00,Wunderground v.1.15,2013-01-31 09:18:00,
2013-01-31 04:19:00,72.1,70.0,29.94,South,186,3.0,5.0,93,0.00,,,0.00,Wunderground v.1.15,2013-01-31 09:19:00,
2013-01-31 04:22:00,72.1,70.0,29.94,SE,137,2.0,4.0,93,0.00,,,0.00,Wunderground v.1.15,2013-01-31 09:22:00,
2013-01-31 04:23:00,72.1,70.0,29.94,SE,144,0.0,4.0,93,0.00,,,0.00,Wunderground v.1.15,2013-01-31 09:23:00,
2013-01-31 04:24:00,72.1,70.0,29.94,South,171,1.0,4.0,93,0.00,,,0.00,Wunderground v.1.15,2013-01-31 09:24:00,
2013-01-31 04:27:00,72.1,70.0,29.94,South,179,1.0,4.0,93,0.00,,,0.00,Wunderground v.1.15,2013-01-31 09:27:00,
2013-01-31 04:28:00,72.1,70.0,29.94,South,179,2.0,4.0,93,0.00,,,0.00,Wunderground v.1.15,2013-01-31 09:28:00,
2013-01-31 04:29:00,72.1,70.0,29.94,South,182,2.0,4.0,93,0.00,,,0.00,Wunderground v.1.15,2013-01-31 09:29:00,
2013-01-31 04:32:00,72.1,70.0,29.94,South,187,2.0,3.0,93,0.00,,,0.00,Wunderground v.1.15,2013-01-31 09:32:00,
2013-01-31 04:33:00,72.1,70.0,29.94,SSE,162,1.0,3.0,93,0.00,,,0.00,Wunderground v.1.15,2013-01-31 09:33:00,
2013-01-31 04:35:00,72.1,70.0,29.94,SSE,162,1.0,3.0,93,0.00,,,0.00,Wunderground v.1.15,2013-01-31 09:35:00,
2013-01-31 04:37:00,72.1,70.0,29.94,South,175,1.0,4.0,93,0.00,,,0.00,Wunderground v.1.15,2013-01-31 09:37:00,
2013-01-31 04:38:00,72.1,70.0,29.94,South,179,1.0,4.0,93,0.00,,,0.00,Wunderground v.1.15,2013-01-31 09:38:00,
2013-01-31 04:40:00,72.1,70.0,29.94,South,189,3.0,3.0,93,0.00,,,0.00,Wunderground v.1.15,2013-01-31 09:40:00,
2013-01-31 04:43:00,72.1,70.0,29.94,South,178,3.0,4.0,93,0.00,,,0.00,Wunderground v.1.15,2013-01-31 09:43:00,
2013-01-31 04:45:00,72.0,69.9,29.94,SE,145,2.0,4.0,93,0.00,,,0.00,Wunderground v.1.15,2013-01-31 09:45:00,
2013-01-31 04:48:00,72.0,69.9,29.94,South,189,2.0,5.0,93,0.00,,,0.00,Wunderground v.1.15,2013-01-31 09:48:00,
2013-01-31 04:50:00,72.0,69.9,29.93,SSE,162,2.0,3.0,93,0.00,,,0.00,Wunderground v.1.15,2013-01-31 09:50:00,
2013-01-31 04:53:00,72.0,69.9,29.93,SSE,165,3.0,4.0,93,0.00,,,0.00,Wunderground v.1.15,2013-01-31 09:53:00,
2013-01-31 04:55:00,72.0,69.9,29.94,SSW,198,2.0,4.0,93,0.00,,,0.00,Wunderground v.1.15,2013-01-31 09:55:00,
2013-01-31 04:58:00,72.1,70.0,29.94,SSW,200,0.0,4.0,93,0.00,,,0.00,Wunderground v.1.15,2013-01-31 09:58:00,
2013-01-31 05:00:00,72.0,69.9,29.94,South,187,2.0,3.0,93,0.00,,,0.00,Wunderground v.1.15,2013-01-31 10:00:00,
2013-01-31 05:03:00,72.0,69.9,29.94,SSE,160,2.0,4.0,93,0.00,,,0.00,Wunderground v.1.15,2013-01-31 10:03:00,
2013-01-31 05:04:00,72.1,70.0,29.94,South,184,1.0,4.0,93,0.00,,,0.00,Wunderground v.1.15,2013-01-31 10:04:00,
2013-01-31 05:05:00,72.0,69.9,29.94,SSW,198,2.0,4.0,93,0.00,,,0.00,Wunderground v.1.15,2013-01-31 10:05:00,
2013-01-31 05:06:00,72.1,70.0,29.94,South,185,2.0,4.0,93,0.00,,,0.00,Wunderground v.1.15,2013-01-31 10:06:00,
2013-01-31 05:09:00,72.0,69.9,29.94,South,189,0.0,4.0,93,0.00,,,0.00,Wunderground v.1.15,2013-01-31 10:09:00,
2013-01-31 05:11:00,72.0,69.9,29.94,South,173,0.0,3.0,93,0.00,,,0.00,Wunderground v.1.15,2013-01-31 10:11:00,
2013-01-31 05:14:00,72.0,69.9,29.94,SSE,163,2.0,4.0,93,0.00,,,0.00,Wunderground v.1.15,2013-01-31 10:14:00,
2013-01-31 05:16:00,72.0,69.9,29.94,SSW,202,2.0,4.0,93,0.00,,,0.00,Wunderground v.1.15,2013-01-31 10:16:00,
2013-01-31 05:19:00,72.0,69.9,29.94,South,181,1.0,4.0,93,0.00,,,0.00,Wunderground v.1.15,2013-01-31 10:19:00,
2013-01-31 05:20:00,72.0,69.9,29.94,SE,144,2.0,3.0,93,0.00,,,0.00,Wunderground v.1.15,2013-01-31 10:20:00,
2013-01-31 05:21:00,71.9,69.8,29.94,SSE,155,2.0,3.0,93,0.00,,,0.00,Wunderground v.1.15,2013-01-31 10:21:00,
2013-01-31 05:24:00,72.0,70.2,29.94,South,173,0.0,4.0,94,0.00,,,0.00,Wunderground v.1.15,2013-01-31 10:24:00,
2013-01-31 05:25:00,72.0,70.2,29.95,South,171,3.0,4.0,94,0.00,,,0.00,Wunderground v.1.15,2013-01-31 10:25:00,
2013-01-31 05:26:00,72.0,70.2,29.94,South,179,1.0,4.0,94,0.00,,,0.00,Wunderground v.1.15,2013-01-31 10:26:00,
2013-01-31 05:29:00,71.9,70.1,29.95,SSW,204,3.0,4.0,94,0.00,,,0.00,Wunderground v.1.15,2013-01-31 10:29:00,
2013-01-31 05:30:00,72.0,70.2,29.95,South,191,4.0,4.0,94,0.00,,,0.00,Wunderground v.1.15,2013-01-31 10:30:00,
2013-01-31 05:32:00,71.9,70.1,29.95,South,181,2.0,4.0,94,0.00,,,0.00,Wunderground v.1.15,2013-01-31 10:32:00,
2013-01-31 05:34:00,71.9,70.1,29.95,SE,146,2.0,4.0,94,0.00,,,0.00,Wunderground v.1.15,2013-01-31 10:34:00,
2013-01-31 05:35:00,71.9,70.1,29.95,SSE,154,2.0,4.0,94,0.00,,,0.00,Wunderground v.1.15,2013-01-31 10:35:00,
2013-01-31 05:37:00,71.9,70.1,29.95,South,186,1.0,4.0,94,0.00,,,0.00,Wunderground v.1.15,2013-01-31 10:37:00,
2013-01-31 05:39:00,71.9,70.1,29.95,South,180,3.0,3.0,94,0.00,,,0.00,Wunderground v.1.15,2013-01-31 10:39:00,
2013-01-31 05:40:00,71.9,70.1,29.95,South,171,2.0,4.0,94,0.00,,,0.00,Wunderground v.1.15,2013-01-31 10:40:00,
2013-01-31 05:42:00,71.9,70.1,29.95,SSW,194,1.0,4.0,94,0.00,,,0.00,Wunderground v.1.15,2013-01-31 10:42:00,
2013-01-31 05:45:00,72.0,70.2,29.95,South,187,3.0,4.0,94,0.00,,,0.00,Wunderground v.1.15,2013-01-31 10:45:00,
2013-01-31 05:47:00,71.9,70.1,29.95,SSW,194,1.0,6.0,94,0.00,,,0.00,Wunderground v.1.15,2013-01-31 10:47:00,
2013-01-31 05:50:00,71.9,70.1,29.95,South,186,3.0,3.0,94,0.00,,,0.00,Wunderground v.1.15,2013-01-31 10:50:00,
2013-01-31 05:51:00,71.9,70.1,29.95,SSE,165,6.0,6.0,94,0.00,,,0.00,Wunderground v.1.15,2013-01-31 10:51:00,
2013-01-31 05:52:00,71.9,70.1,29.95,South,183,4.0,6.0,94,0.00,,,0.00,Wunderground v.1.15,2013-01-31 10:52:00,
2013-01-31 05:53:00,71.9,70.1,29.95,SSW,194,3.0,6.0,94,0.00,,,0.00,Wunderground v.1.15,2013-01-31 10:53:00,
2013-01-31 05:55:00,71.9,70.1,29.95,SSW,196,0.0,6.0,94,0.00,,,0.00,Wunderground v.1.15,2013-01-31 10:55:00,
2013-01-31 05:57:00,71.9,70.1,29.95,South,186,1.0,6.0,94,0.00,,,0.00,Wunderground v.1.15,2013-01-31 10:57:00,
2013-01-31 05:58:00,71.9,70.1,29.95,South,187,2.0,6.0,94,0.00,,,0.00,Wunderground v.1.15,2013-01-31 10:58:00,
2013-01-31 06:00:00,71.9,70.1,29.95,South,174,0.0,2.0,94,0.00,,,0.00,Wunderground v.1.15,2013-01-31 11:00:00,
2013-01-31 06:02:00,71.9,70.1,29.95,South,175,2.0,2.0,94,0.00,,,0.00,Wunderground v.1.15,2013-01-31 11:02:00,
2013-01-31 06:03:00,71.9,70.1,29.95,South,175,2.0,2.0,94,0.00,,,0.00,Wunderground v.1.15,2013-01-31 11:03:00,
2013-01-31 06:06:00,71.9,70.1,29.95,South,188,1.0,4.0,94,0.00,,,0.00,Wunderground v.1.15,2013-01-31 11:06:00,
2013-01-31 06:07:00,71.9,70.1,29.95,South,187,2.0,4.0,94,0.00,,,0.00,Wunderground v.1.15,2013-01-31 11:07:00,
2013-01-31 06:08:00,71.9,70.1,29.95,South,188,0.0,4.0,94,0.00,,,0.00,Wunderground v.1.15,2013-01-31 11:08:00,
2013-01-31 06:11:00,71.9,70.1,29.95,SSE,160,2.0,3.0,94,0.00,,,0.00,Wunderground v.1.15,2013-01-31 11:11:00,
2013-01-31 06:12:00,71.9,70.1,29.95,SSW,192,2.0,3.0,94,0.00,,,0.00,Wunderground v.1.15,2013-01-31 11:12:00,
2013-01-31 06:13:00,71.9,70.1,29.95,SSE,166,3.0,3.0,94,0.00,,,0.00,Wunderground v.1.15,2013-01-31 11:13:00,
2013-01-31 06:14:00,71.9,70.1,29.95,South,175,1.0,3.0,94,0.00,,,0.00,Wunderground v.1.15,2013-01-31 11:14:00,
2013-01-31 06:17:00,71.9,70.1,29.95,South,181,1.0,3.0,94,0.00,,,0.00,Wunderground v.1.15,2013-01-31 11:17:00,
2013-01-31 06:18:00,71.9,70.1,29.96,South,181,1.0,3.0,94,0.00,,,0.00,Wunderground v.1.15,2013-01-31 11:18:00,
2013-01-31 06:19:00,71.9,70.1,29.96,South,182,2.0,3.0,94,0.00,,,0.00,Wunderground v.1.15,2013-01-31 11:19:00,
2013-01-31 06:22:00,71.9,70.1,29.96,SSW,192,1.0,3.0,94,0.00,,,0.00,Wunderground v.1.15,2013-01-31 11:22:00,
2013-01-31 06:24:00,71.9,70.1,29.96,South,188,2.0,4.0,94,0.00,,,0.00,Wunderground v.1.15,2013-01-31 11:24:00,
2013-01-31 06:27:00,71.9,70.1,29.96,South,179,1.0,4.0,94,0.00,,,0.00,Wunderground v.1.15,2013-01-31 11:27:00,
2013-01-31 06:28:00,71.9,70.1,29.96,South,180,2.0,4.0,94,0.00,,,0.00,Wunderground v.1.15,2013-01-31 11:28:00,
2013-01-31 06:29:00,71.9,70.1,29.96,South,190,2.0,4.0,94,0.00,,,0.00,Wunderground v.1.15,2013-01-31 11:29:00,
2013-01-31 06:32:00,71.9,70.1,29.96,South,186,0.0,5.0,94,0.00,,,0.00,Wunderground v.1.15,2013-01-31 11:32:00,
2013-01-31 06:33:00,71.9,70.1,29.96,South,189,0.0,5.0,94,0.00,,,0.00,Wunderground v.1.15,2013-01-31 11:33:00,
2013-01-31 06:34:00,71.9,70.1,29.96,South,189,0.0,5.0,94,0.00,,,0.00,Wunderground v.1.15,2013-01-31 11:34:00,
2013-01-31 06:37:00,72.0,70.2,29.96,South,189,1.0,5.0,94,0.00,,,0.00,Wunderground v.1.15,2013-01-31 11:37:00,
2013-01-31 06:38:00,72.0,70.2,29.96,South,183,2.0,5.0,94,0.00,,,0.00,Wunderground v.1.15,2013-01-31 11:38:00,
2013-01-31 06:39:00,72.0,70.2,29.96,SSE,148,4.0,5.0,94,0.00,,,0.00,Wunderground v.1.15,2013-01-31 11:39:00,
2013-01-31 06:42:00,72.1,70.3,29.96,South,169,1.0,5.0,94,0.00,,,0.00,Wunderground v.1.15,2013-01-31 11:42:00,
2013-01-31 06:43:00,72.1,70.3,29.96,South,170,2.0,5.0,94,0.00,,,0.00,Wunderground v.1.15,2013-01-31 11:43:00,
2013-01-31 06:45:00,72.1,70.3,29.96,SSW,192,4.0,5.0,94,0.00,,,0.00,Wunderground v.1.15,2013-01-31 11:45:00,
2013-01-31 06:48:00,72.1,70.6,29.96,South,185,1.0,6.0,95,0.00,,,0.00,Wunderground v.1.15,2013-01-31 11:48:00,
2013-01-31 06:50:00,72.2,70.4,29.97,SSW,194,2.0,3.0,94,0.00,,,0.00,Wunderground v.1.15,2013-01-31 11:50:00,
2013-01-31 06:53:00,72.2,70.4,29.97,SE,144,2.0,4.0,94,0.00,,,0.00,Wunderground v.1.15,2013-01-31 11:53:00,
2013-01-31 06:55:00,72.2,70.4,29.97,SSE,162,1.0,5.0,94,0.00,,,0.00,Wunderground v.1.15,2013-01-31 11:55:00,
2013-01-31 06:59:00,72.2,70.4,29.97,South,186,0.0,5.0,94,0.00,,,0.00,Wunderground v.1.15,2013-01-31 11:59:00,
2013-01-31 07:00:00,72.2,70.4,29.97,South,183,1.0,2.0,94,0.00,,,0.00,Wunderground v.1.15,2013-01-31 12:00:00,
2013-01-31 07:01:00,72.1,70.3,29.97,SSW,192,3.0,3.0,94,0.00,,,0.00,Wunderground v.1.15,2013-01-31 12:01:00,
2013-01-31 07:04:00,72.2,70.4,29.97,South,189,0.0,5.0,94,0.00,,,0.00,Wunderground v.1.15,2013-01-31 12:04:00,
2013-01-31 07:06:00,72.2,70.4,29.97,South,177,1.0,6.0,94,0.00,,,0.00,Wunderground v.1.15,2013-01-31 12:06:00,
2013-01-31 07:09:00,72.2,70.4,29.97,South,179,1.0,6.0,94,0.00,,,0.00,Wunderground v.1.15,2013-01-31 12:09:00,
2013-01-31 07:11:00,72.2,70.4,29.97,South,189,2.0,3.0,94,0.00,,,0.00,Wunderground v.1.15,2013-01-31 12:11:00,
2013-01-31 07:14:00,72.2,70.4,29.97,SSW,199,1.0,3.0,94,0.00,,,0.00,Wunderground v.1.15,2013-01-31 12:14:00,
2013-01-31 07:16:00,72.2,70.4,29.98,South,183,2.0,5.0,94,0.00,,,0.00,Wunderground v.1.15,2013-01-31 12:16:00,
2013-01-31 07:17:00,72.2,70.4,29.98,South,183,0.0,5.0,94,0.00,,,0.00,Wunderground v.1.15,2013-01-31 12:17:00,
2013-01-31 07:19:00,72.2,70.4,29.98,South,173,1.0,5.0,94,0.00,,,0.00,Wunderground v.1.15,2013-01-31 12:19:00,
2013-01-31 07:21:00,72.2,70.4,29.98,South,186,2.0,3.0,94,0.00,,,0.00,Wunderground v.1.15,2013-01-31 12:21:00,
2013-01-31 07:22:00,72.2,70.4,29.98,South,182,2.0,4.0,94,0.00,,,0.00,Wunderground v.1.15,2013-01-31 12:22:00,
2013-01-31 07:25:00,72.3,70.8,29.98,South,191,1.0,4.0,95,0.00,,,0.00,Wunderground v.1.15,2013-01-31 12:25:00,
2013-01-31 07:26:00,72.3,70.8,29.98,South,180,1.0,5.0,95,0.00,,,0.00,Wunderground v.1.15,2013-01-31 12:26:00,
2013-01-31 07:27:00,72.3,70.8,29.98,SSW,194,0.0,5.0,95,0.00,,,0.00,Wunderground v.1.15,2013-01-31 12:27:00,
2013-01-31 07:30:00,72.4,70.9,29.98,SSW,199,1.0,2.0,95,0.00,,,0.00,Wunderground v.1.15,2013-01-31 12:30:00,
2013-01-31 07:31:00,72.4,70.9,29.98,SSE,167,3.0,3.0,95,0.00,,,0.00,Wunderground v.1.15,2013-01-31 12:31:00,
2013-01-31 07:32:00,72.4,70.9,29.98,SSW,197,3.0,5.0,95,0.00,,,0.00,Wunderground v.1.15,2013-01-31 12:32:00,
2013-01-31 07:35:00,72.5,71.0,29.98,South,173,2.0,5.0,95,0.00,,,0.00,Wunderground v.1.15,2013-01-31 12:35:00,
2013-01-31 07:37:00,72.5,70.7,29.98,South,173,2.0,5.0,94,0.00,,,0.00,Wunderground v.1.15,2013-01-31 12:37:00,
2013-01-31 07:38:00,72.5,70.7,29.98,South,173,2.0,5.0,94,0.00,,,0.00,Wunderground v.1.15,2013-01-31 12:38:00,
2013-01-31 07:40:00,72.5,70.7,29.98,South,179,2.0,2.0,94,0.00,,,0.00,Wunderground v.1.15,2013-01-31 12:40:00,
2013-01-31 07:41:00,72.5,70.7,29.98,South,179,1.0,3.0,94,0.00,,,0.00,Wunderground v.1.15,2013-01-31 12:41:00,
2013-01-31 07:42:00,72.5,70.7,29.98,South,185,2.0,3.0,94,0.00,,,0.00,Wunderground v.1.15,2013-01-31 12:42:00,
2013-01-31 07:43:00,72.6,70.8,29.98,South,177,3.0,5.0,94,0.00,,,0.00,Wunderground v.1.15,2013-01-31 12:43:00,
2013-01-31 07:46:00,72.6,70.8,29.98,South,183,1.0,5.0,94,0.00,,,0.00,Wunderground v.1.15,2013-01-31 12:46:00,
2013-01-31 07:47:00,72.6,70.8,29.98,South,178,2.0,5.0,94,0.00,,,0.00,Wunderground v.1.15,2013-01-31 12:47:00,
2013-01-31 07:48:00,72.6,70.8,29.98,South,178,1.0,5.0,94,0.00,,,0.00,Wunderground v.1.15,2013-01-31 12:48:00,
2013-01-31 07:51:00,72.6,70.8,29.98,South,178,0.0,2.0,94,0.00,,,0.00,Wunderground v.1.15,2013-01-31 12:51:00,
2013-01-31 07:53:00,72.7,70.9,29.99,South,178,1.0,3.0,94,0.00,,,0.00,Wunderground v.1.15,2013-01-31 12:53:00,
2013-01-31 07:56:00,72.8,71.0,29.99,South,178,3.0,3.0,94,0.00,,,0.00,Wunderground v.1.15,2013-01-31 12:56:00,
2013-01-31 07:58:00,72.9,71.1,29.99,South,183,2.0,5.0,94,0.00,,,0.00,Wunderground v.1.15,2013-01-31 12:58:00,
2013-01-31 07:59:00,72.9,71.1,29.99,South,183,2.0,5.0,94,0.00,,,0.00,Wunderground v.1.15,2013-01-31 12:59:00,
2013-01-31 08:02:00,73.0,71.2,29.99,South,183,0.0,2.0,94,0.00,,,0.00,Wunderground v.1.15,2013-01-31 13:02:00,
2013-01-31 08:03:00,73.1,71.3,29.99,South,187,1.0,5.0,94,0.00,,,0.00,Wunderground v.1.15,2013-01-31 13:03:00,
2013-01-31 08:04:00,73.1,71.3,29.99,SSW,196,2.0,5.0,94,0.00,,,0.00,Wunderground v.1.15,2013-01-31 13:04:00,
2013-01-31 08:07:00,73.3,71.5,30.00,South,181,5.0,5.0,94,0.00,,,0.00,Wunderground v.1.15,2013-01-31 13:07:00,
2013-01-31 08:09:00,73.3,71.5,29.99,South,182,0.0,5.0,94,0.00,,,0.00,Wunderground v.1.15,2013-01-31 13:09:00,
2013-01-31 08:12:00,73.4,71.6,30.00,SSE,161,4.0,5.0,94,0.00,,,0.00,Wunderground v.1.15,2013-01-31 13:12:00,
2013-01-31 08:13:00,73.4,71.6,30.00,SSE,167,3.0,5.0,94,0.00,,,0.00,Wunderground v.1.15,2013-01-31 13:13:00,
2013-01-31 08:14:00,73.5,71.4,30.00,South,178,4.0,5.0,93,0.00,,,0.00,Wunderground v.1.15,2013-01-31 13:14:00,
2013-01-31 08:17:00,73.7,71.5,30.00,SSW,193,2.0,5.0,93,0.00,,,0.00,Wunderground v.1.15,2013-01-31 13:17:00,
2013-01-31 08:18:00,73.7,71.5,30.00,South,189,1.0,5.0,93,0.00,,,0.00,Wunderground v.1.15,2013-01-31 13:18:00,
2013-01-31 08:19:00,73.8,71.6,30.00,SSW,207,0.0,5.0,93,0.00,,,0.00,Wunderground v.1.15,2013-01-31 13:19:00,
2013-01-31 08:22:00,74.0,71.8,30.00,SSW,212,2.0,5.0,93,0.00,,,0.00,Wunderground v.1.15,2013-01-31 13:22:00,
2013-01-31 08:23:00,74.1,71.9,30.01,South,173,3.0,5.0,93,0.00,,,0.00,Wunderground v.1.15,2013-01-31 13:23:00,
2013-01-31 08:24:00,74.2,72.0,30.01,SSW,203,2.0,6.0,93,0.00,,,0.00,Wunderground v.1.15,2013-01-31 13:24:00,
2013-01-31 08:25:00,74.2,72.0,30.01,SW,216,3.0,6.0,93,0.00,,,0.00,Wunderground v.1.15,2013-01-31 13:25:00,
2013-01-31 08:27:00,74.4,72.2,30.01,WSW,244,5.0,9.0,93,0.00,,,0.00,Wunderground v.1.15,2013-01-31 13:27:00,
2013-01-31 08:29:00,74.4,72.2,30.02,WSW,248,5.0,9.0,93,0.00,,,0.00,Wunderground v.1.15,2013-01-31 13:29:00,
2013-01-31 08:30:00,74.4,71.9,30.03,WNW,283,13.0,13.0,92,0.00,,,0.00,Wunderground v.1.15,2013-01-31 13:30:00,
2013-01-31 08:32:00,73.6,69.5,30.03,NW,304,12.0,17.0,87,0.00,,,0.00,Wunderground v.1.15,2013-01-31 13:32:00,
2013-01-31 08:34:00,73.2,68.8,30.04,WNW,290,11.0,17.0,86,0.00,,,0.00,Wunderground v.1.15,2013-01-31 13:34:00,
2013-01-31 08:35:00,72.9,68.1,30.04,West,273,18.0,18.0,85,0.00,,,0.00,Wunderground v.1.15,2013-01-31 13:35:00,
2013-01-31 08:38:00,71.9,66.8,30.04,West,275,10.0,18.0,84,0.00,,,0.00,Wunderground v.1.15,2013-01-31 13:38:00,
2013-01-31 08:39:00,71.5,66.4,30.04,West,271,5.0,18.0,84,0.00,,,0.00,Wunderground v.1.15,2013-01-31 13:39:00,
2013-01-31 08:40:00,71.2,66.1,30.04,West,267,6.0,13.0,84,0.00,,,0.00,Wunderground v.1.15,2013-01-31 13:40:00,
2013-01-31 08:43:00,70.5,65.4,30.04,West,281,12.0,13.0,84,0.00,,,0.00,Wunderground v.1.15,2013-01-31 13:43:00,
2013-01-31 08:44:00,69.9,65.2,30.04,WNW,294,4.0,15.0,85,0.00,,,0.00,Wunderground v.1.15,2013-01-31 13:44:00,
2013-01-31 08:45:00,69.8,65.1,30.05,West,264,6.0,15.0,85,0.00,,,0.00,Wunderground v.1.15,2013-01-31 13:45:00,
2013-01-31 08:46:00,69.7,65.0,30.05,NW,304,3.0,15.0,85,0.00,,,0.00,Wunderground v.1.15,2013-01-31 13:46:00,
2013-01-31 08:48:00,69.3,64.9,30.05,WSW,247,5.0,15.0,86,0.00,,,0.00,Wunderground v.1.15,2013-01-31 13:48:00,
2013-01-31 08:49:00,69.1,64.7,30.05,WNW,285,5.0,15.0,86,0.00,,,0.00,Wunderground v.1.15,2013-01-31 13:49:00,
2013-01-31 08:50:00,69.0,64.6,30.05,WNW,301,12.0,12.0,86,0.00,,,0.00,Wunderground v.1.15,2013-01-31 13:50:00,
2013-01-31 08:51:00,68.9,64.5,30.05,WNW,298,9.0,12.0,86,0.00,,,0.00,Wunderground v.1.15,2013-01-31 13:51:00,
2013-01-31 08:53:00,68.6,64.6,30.05,West,281,2.0,13.0,87,0.00,,,0.00,Wunderground v.1.15,2013-01-31 13:53:00,
2013-01-31 08:55:00,68.4,64.7,30.05,West,259,3.0,13.0,88,0.00,,,0.00,Wunderground v.1.15,2013-01-31 13:55:00,
2013-01-31 08:56:00,68.4,64.7,30.05,WNW,286,8.0,13.0,88,0.00,,,0.00,Wunderground v.1.15,2013-01-31 13:56:00,
2013-01-31 08:59:00,68.0,64.3,30.05,WNW,283,4.0,13.0,88,0.00,,,0.00,Wunderground v.1.15,2013-01-31 13:59:00,
2013-01-31 09:00:00,67.9,64.2,30.06,West,278,10.0,12.0,88,0.00,,,0.00,Wunderground v.1.15,2013-01-31 14:00:00,
2013-01-31 09:01:00,67.9,64.5,30.06,West,276,12.0,13.0,89,0.00,,,0.00,Wunderground v.1.15,2013-01-31 14:01:00,
2013-01-31 09:04:00,67.7,64.3,30.06,WNW,287,7.0,14.0,89,0.00,,,0.00,Wunderground v.1.15,2013-01-31 14:04:00,
2013-01-31 09:06:00,67.6,64.2,30.06,WNW,296,6.0,14.0,89,0.00,,,0.00,Wunderground v.1.15,2013-01-31 14:06:00,
2013-01-31 09:09:00,67.4,64.4,30.06,WNW,283,5.0,14.0,90,0.00,,,0.00,Wunderground v.1.15,2013-01-31 14:09:00,
2013-01-31 09:11:00,67.3,64.3,30.07,West,278,10.0,16.0,90,0.00,,,0.00,Wunderground v.1.15,2013-01-31 14:11:00,
2013-01-31 09:12:00,67.3,64.3,30.07,West,273,9.0,16.0,90,0.00,,,0.00,Wunderground v.1.15,2013-01-31 14:12:00,
2013-01-31 09:14:00,67.2,64.2,30.07,West,260,8.0,16.0,90,0.00,,,0.00,Wunderground v.1.15,2013-01-31 14:14:00,
2013-01-31 09:16:00,67.1,64.1,30.07,WNW,293,4.0,16.0,90,0.00,,,0.00,Wunderground v.1.15,2013-01-31 14:16:00,
2013-01-31 09:17:00,67.1,64.1,30.07,WSW,246,3.0,16.0,90,0.00,,,0.00,Wunderground v.1.15,2013-01-31 14:17:00,
2013-01-31 09:19:00,67.0,64.3,30.07,West,280,9.0,16.0,91,0.00,,,0.00,Wunderground v.1.15,2013-01-31 14:19:00,
2013-01-31 09:21:00,67.0,64.3,30.07,NW,304,4.0,10.0,91,0.00,,,0.00,Wunderground v.1.15,2013-01-31 14:21:00,
2013-01-31 09:22:00,67.0,64.3,30.07,WNW,285,5.0,10.0,91,0.00,,,0.00,Wunderground v.1.15,2013-01-31 14:22:00,
2013-01-31 09:25:00,67.0,64.0,30.07,West,260,6.0,15.0,90,0.00,,,0.00,Wunderground v.1.15,2013-01-31 14:25:00,
2013-01-31 09:26:00,67.1,64.4,30.07,West,279,2.0,15.0,91,0.00,,,0.00,Wunderground v.1.15,2013-01-31 14:26:00,
2013-01-31 09:27:00,67.0,64.3,30.07,NW,312,6.0,15.0,91,0.00,,,0.00,Wunderground v.1.15,2013-01-31 14:27:00,
2013-01-31 09:30:00,67.0,64.0,30.07,WSW,254,13.0,13.0,90,0.00,,,0.00,Wunderground v.1.15,2013-01-31 14:30:00,
2013-01-31 09:31:00,67.0,64.0,30.07,West,266,4.0,15.0,90,0.00,,,0.00,Wunderground v.1.15,2013-01-31 14:31:00,
2013-01-31 09:32:00,67.0,64.0,30.07,NW,325,5.0,15.0,90,0.00,,,0.00,Wunderground v.1.15,2013-01-31 14:32:00,
2013-01-31 09:35:00,67.0,64.0,30.07,NW,305,9.0,15.0,90,0.00,,,0.00,Wunderground v.1.15,2013-01-31 14:35:00,
2013-01-31 09:37:00,67.0,64.0,30.07,WNW,293,5.0,15.0,90,0.00,,,0.00,Wunderground v.1.15,2013-01-31 14:37:00,
2013-01-31 09:41:00,67.1,64.1,30.07,West,281,7.0,7.0,90,0.00,,,0.00,Wunderground v.1.15,2013-01-31 14:41:00,
2013-01-31 09:42:00,67.1,64.1,30.07,West,273,10.0,10.0,90,0.00,,,0.00,Wunderground v.1.15,2013-01-31 14:42:00,
2013-01-31 09:46:00,67.2,63.8,30.07,WNW,291,10.0,13.0,89,0.00,,,0.00,Wunderground v.1.15,2013-01-31 14:46:00,
2013-01-31 09:47:00,67.2,63.5,30.07,WNW,298,9.0,13.0,88,0.00,,,0.00,Wunderground v.1.15,2013-01-31 14:47:00,
2013-01-31 09:48:00,67.2,63.5,30.07,WNW,299,6.0,13.0,88,0.00,,,0.00,Wunderground v.1.15,2013-01-31 14:48:00,
2013-01-31 09:51:00,67.0,62.7,30.07,WNW,301,12.0,12.0,86,0.00,,,0.00,Wunderground v.1.15,2013-01-31 14:51:00,
2013-01-31 09:52:00,66.9,62.6,30.08,West,264,6.0,14.0,86,0.00,,,0.00,Wunderground v.1.15,2013-01-31 14:52:00,
2013-01-31 09:53:00,66.9,62.6,30.08,WNW,290,10.0,14.0,86,0.00,,,0.00,Wunderground v.1.15,2013-01-31 14:53:00,
2013-01-31 09:56:00,67.0,62.7,30.07,West,275,10.0,14.0,86,0.00,,,0.00,Wunderground v.1.15,2013-01-31 14:56:00,
2013-01-31 09:58:00,67.1,62.8,30.07,West,279,11.0,14.0,86,0.00,,,0.00,Wunderground v.1.15,2013-01-31 14:58:00,
2013-01-31 10:01:00,67.3,63.0,30.08,WSW,255,6.0,8.0,86,0.00,,,0.00,Wunderground v.1.15,2013-01-31 15:01:00,
2013-01-31 10:03:00,67.5,62.8,30.08,WNW,286,11.0,14.0,85,0.00,,,0.00,Wunderground v.1.15,2013-01-31 15:03:00,
2013-01-31 10:04:00,67.6,62.9,30.08,WSW,255,5.0,14.0,85,0.00,,,0.00,Wunderground v.1.15,2013-01-31 15:04:00,
2013-01-31 10:06:00,67.7,62.7,30.08,WNW,291,5.0,14.0,84,0.00,,,0.00,Wunderground v.1.15,2013-01-31 15:06:00,
2013-01-31 10:08:00,67.8,62.4,30.07,West,265,7.0,14.0,83,0.00,,,0.00,Wunderground v.1.15,2013-01-31 15:08:00,
2013-01-31 10:09:00,67.9,62.5,30.08,NW,313,7.0,14.0,83,0.00,,,0.00,Wunderground v.1.15,2013-01-31 15:09:00,
2013-01-31 10:12:00,68.1,62.7,30.08,WNW,283,7.0,17.0,83,0.00,,,0.00,Wunderground v.1.15,2013-01-31 15:12:00,
2013-01-31 10:13:00,68.1,62.7,30.08,West,270,9.0,17.0,83,0.00,,,0.00,Wunderground v.1.15,2013-01-31 15:13:00,
2013-01-31 10:14:00,68.1,62.7,30.08,NW,304,5.0,17.0,83,0.00,,,0.00,Wunderground v.1.15,2013-01-31 15:14:00,
2013-01-31 10:17:00,68.4,63.0,30.08,WNW,282,3.0,17.0,83,0.00,,,0.00,Wunderground v.1.15,2013-01-31 15:17:00,
2013-01-31 10:18:00,68.5,63.1,30.08,WNW,291,5.0,17.0,83,0.00,,,0.00,Wunderground v.1.15,2013-01-31 15:18:00,
2013-01-31 10:19:00,68.5,63.1,30.08,West,270,7.0,17.0,83,0.00,,,0.00,Wunderground v.1.15,2013-01-31 15:19:00,
2013-01-31 10:20:00,68.6,63.2,30.08,West,268,6.0,7.0,83,0.00,,,0.00,Wunderground v.1.15,2013-01-31 15:20:00,
2013-01-31 10:23:00,68.9,63.5,30.08,WNW,293,10.0,10.0,83,0.00,,,0.00,Wunderground v.1.15,2013-01-31 15:23:00,
2013-01-31 10:24:00,69.0,63.3,30.08,WNW,283,13.0,14.0,82,0.00,,,0.00,Wunderground v.1.15,2013-01-31 15:24:00,
2013-01-31 10:25:00,69.0,63.3,30.08,WNW,296,14.0,14.0,82,0.00,,,0.00,Wunderground v.1.15,2013-01-31 15:25:00,
2013-01-31 10:28:00,69.2,63.1,30.09,West,275,12.0,16.0,81,0.00,,,0.00,Wunderground v.1.15,2013-01-31 15:28:00,
2013-01-31 10:29:00,69.1,62.7,30.09,WNW,285,6.0,16.0,80,0.00,,,0.00,Wunderground v.1.15,2013-01-31 15:29:00,
2013-01-31 10:30:00,69.1,62.7,30.09,WNW,293,11.0,11.0,80,0.00,,,0.00,Wunderground v.1.15,2013-01-31 15:30:00,
2013-01-31 10:33:00,69.0,62.6,30.09,NW,308,8.0,15.0,80,0.00,,,0.00,Wunderground v.1.15,2013-01-31 15:33:00,
2013-01-31 10:34:00,68.9,62.5,30.09,NW,304,9.0,15.0,80,0.00,,,0.00,Wunderground v.1.15,2013-01-31 15:34:00,
2013-01-31 10:35:00,68.9,62.5,30.09,WNW,285,7.0,15.0,80,0.00,,,0.00,Wunderground v.1.15,2013-01-31 15:35:00,
2013-01-31 10:36:00,68.8,62.4,30.09,West,277,5.0,15.0,80,0.00,,,0.00,Wunderground v.1.15,2013-01-31 15:36:00,
2013-01-31 10:38:00,68.7,62.3,30.09,WNW,283,7.0,15.0,80,0.00,,,0.00,Wunderground v.1.15,2013-01-31 15:38:00,
2013-01-31 10:39:00,68.7,62.3,30.09,WNW,285,8.0,15.0,80,0.00,,,0.00,Wunderground v.1.15,2013-01-31 15:39:00,
2013-01-31 10:41:00,68.6,62.2,30.09,SW,236,7.0,11.0,80,0.00,,,0.00,Wunderground v.1.15,2013-01-31 15:41:00,
2013-01-31 10:43:00,68.5,62.1,30.09,WNW,282,6.0,14.0,80,0.00,,,0.00,Wunderground v.1.15,2013-01-31 15:43:00,
2013-01-31 10:45:00,68.4,62.0,30.09,WSW,257,11.0,14.0,80,0.00,,,0.00,Wunderground v.1.15,2013-01-31 15:45:00,
2013-01-31 10:46:00,68.4,62.0,30.09,WNW,282,10.0,14.0,80,0.00,,,0.00,Wunderground v.1.15,2013-01-31 15:46:00,
2013-01-31 10:47:00,68.4,62.0,30.10,NW,323,9.0,14.0,80,0.00,,,0.00,Wunderground v.1.15,2013-01-31 15:47:00,
2013-01-31 10:49:00,68.3,61.9,30.09,NW,305,9.0,14.0,80,0.00,,,0.00,Wunderground v.1.15,2013-01-31 15:49:00,
2013-01-31 10:50:00,68.3,61.9,30.09,WNW,300,5.0,10.0,80,0.00,,,0.00,Wunderground v.1.15,2013-01-31 15:50:00,
2013-01-31 10:51:00,68.2,61.8,30.09,WNW,301,7.0,12.0,80,0.00,,,0.00,Wunderground v.1.15,2013-01-31 15:51:00,
2013-01-31 10:52:00,68.2,61.8,30.09,West,274,4.0,12.0,80,0.00,,,0.00,Wunderground v.1.15,2013-01-31 15:52:00,
2013-01-31 10:54:00,68.2,61.8,30.09,West,276,11.0,15.0,80,0.00,,,0.00,Wunderground v.1.15,2013-01-31 15:54:00,
2013-01-31 10:55:00,68.3,62.2,30.09,WNW,289,6.0,15.0,81,0.00,,,0.00,Wunderground v.1.15,2013-01-31 15:55:00,
2013-01-31 10:56:00,68.3,61.9,30.09,West,277,3.0,15.0,80,0.00,,,0.00,Wunderground v.1.15,2013-01-31 15:56:00,
2013-01-31 10:57:00,68.3,62.2,30.09,West,262,10.0,15.0,81,0.00,,,0.00,Wunderground v.1.15,2013-01-31 15:57:00,
2013-01-31 10:59:00,68.4,62.3,30.09,West,260,3.0,15.0,81,0.00,,,0.00,Wunderground v.1.15,2013-01-31 15:59:00,
2013-01-31 11:00:00,68.4,62.3,30.09,WNW,289,9.0,10.0,81,0.00,,,0.00,Wunderground v.1.15,2013-01-31 16:00:00,
2013-01-31 11:01:00,68.5,62.4,30.09,WNW,287,6.0,11.0,81,0.00,,,0.00,Wunderground v.1.15,2013-01-31 16:01:00,
2013-01-31 11:03:00,68.6,62.5,30.09,WNW,292,9.0,11.0,81,0.00,,,0.00,Wunderground v.1.15,2013-01-31 16:03:00,
2013-01-31 11:04:00,68.8,62.7,30.09,West,281,12.0,12.0,81,0.00,,,0.00,Wunderground v.1.15,2013-01-31 16:04:00,
2013-01-31 11:05:00,68.9,62.5,30.09,West,281,4.0,12.0,80,0.00,,,0.00,Wunderground v.1.15,2013-01-31 16:05:00,
2013-01-31 11:07:00,69.0,62.6,30.09,WNW,283,7.0,12.0,80,0.00,,,0.00,Wunderground v.1.15,2013-01-31 16:07:00,
2013-01-31 11:08:00,69.0,62.6,30.09,WNW,302,6.0,12.0,80,0.00,,,0.00,Wunderground v.1.15,2013-01-31 16:08:00,
2013-01-31 11:09:00,69.1,62.7,30.09,NW,314,5.0,12.0,80,0.00,,,0.00,Wunderground v.1.15,2013-01-31 16:09:00,
2013-01-31 11:11:00,69.2,62.4,30.09,NW,314,7.0,9.0,79,0.00,,,0.00,Wunderground v.1.15,2013-01-31 16:11:00,
2013-01-31 11:12:00,69.2,62.4,30.09,WNW,296,5.0,9.0,79,0.00,,,0.00,Wunderground v.1.15,2013-01-31 16:12:00,
2013-01-31 11:13:00,69.2,62.4,30.09,NW,324,7.0,9.0,79,0.00,,,0.00,Wunderground v.1.15,2013-01-31 16:13:00,
2013-01-31 11:14:00,69.3,62.5,30.09,WNW,291,6.0,11.0,79,0.00,,,0.00,Wunderground v.1.15,2013-01-31 16:14:00,
2013-01-31 11:17:00,69.3,62.5,30.09,WNW,298,6.0,11.0,79,0.00,,,0.00,Wunderground v.1.15,2013-01-31 16:17:00,
2013-01-31 11:18:00,69.3,62.5,30.09,WNW,294,6.0,11.0,79,0.00,,,0.00,Wunderground v.1.15,2013-01-31 16:18:00,
2013-01-31 11:20:00,69.4,62.6,30.09,NW,313,8.0,8.0,79,0.00,,,0.00,Wunderground v.1.15,2013-01-31 16:20:00,
2013-01-31 11:23:00,69.5,62.3,30.09,NW,312,6.0,11.0,78,0.00,,,0.00,Wunderground v.1.15,2013-01-31 16:23:00,
2013-01-31 11:25:00,69.6,62.4,30.08,WNW,291,9.0,11.0,78,0.00,,,0.00,Wunderground v.1.15,2013-01-31 16:25:00,
2013-01-31 11:28:00,69.7,62.2,30.08,WNW,297,6.0,11.0,77,0.00,,,0.00,Wunderground v.1.15,2013-01-31 16:28:00,
2013-01-31 11:29:00,69.8,62.3,30.08,WNW,289,5.0,11.0,77,0.00,,,0.00,Wunderground v.1.15,2013-01-31 16:29:00,
2013-01-31 11:30:00,69.9,62.4,30.08,West,276,7.0,7.0,77,0.00,,,0.00,Wunderground v.1.15,2013-01-31 16:30:00,
2013-01-31 11:33:00,70.0,62.5,30.08,WNW,296,6.0,12.0,77,0.00,,,0.00,Wunderground v.1.15,2013-01-31 16:33:00,
2013-01-31 11:34:00,70.1,62.6,30.08,NW,310,5.0,12.0,77,0.00,,,0.00,Wunderground v.1.15,2013-01-31 16:34:00,
2013-01-31 11:36:00,70.1,62.2,30.08,WNW,283,7.0,12.0,76,0.00,,,0.00,Wunderground v.1.15,2013-01-31 16:36:00,
2013-01-31 11:38:00,70.2,62.3,30.08,WNW,290,4.0,12.0,76,0.00,,,0.00,Wunderground v.1.15,2013-01-31 16:38:00,
2013-01-31 11:39:00,70.2,62.3,30.08,WNW,288,7.0,12.0,76,0.00,,,0.00,Wunderground v.1.15,2013-01-31 16:39:00,
2013-01-31 11:40:00,70.3,62.0,30.08,WNW,301,9.0,11.0,75,0.00,,,0.00,Wunderground v.1.15,2013-01-31 16:40:00,
2013-01-31 11:42:00,70.3,62.0,30.08,WNW,303,8.0,11.0,75,0.00,,,0.00,Wunderground v.1.15,2013-01-31 16:42:00,
2013-01-31 11:43:00,70.3,62.0,30.08,NNW,331,10.0,11.0,75,0.00,,,0.00,Wunderground v.1.15,2013-01-31 16:43:00,
2013-01-31 11:44:00,70.3,62.0,30.08,NW,318,4.0,11.0,75,0.00,,,0.00,Wunderground v.1.15,2013-01-31 16:44:00,
2013-01-31 11:45:00,70.2,61.9,30.08,WNW,300,4.0,11.0,75,0.00,,,0.00,Wunderground v.1.15,2013-01-31 16:45:00,
2013-01-31 11:47:00,70.3,62.0,30.08,WNW,283,6.0,11.0,75,0.00,,,0.00,Wunderground v.1.15,2013-01-31 16:47:00,
2013-01-31 11:49:00,70.4,62.1,30.08,WNW,299,10.0,13.0,75,0.00,,,0.00,Wunderground v.1.15,2013-01-31 16:49:00,
2013-01-31 11:51:00,70.4,62.1,30.08,NW,324,4.0,11.0,75,0.00,,,0.00,Wunderground v.1.15,2013-01-31 16:51:00,
2013-01-31 11:52:00,70.5,62.2,30.08,NW,312,5.0,11.0,75,0.00,,,0.00,Wunderground v.1.15,2013-01-31 16:52:00,
2013-01-31 11:54:00,70.8,62.5,30.08,WNW,294,4.0,12.0,75,0.00,,,0.00,Wunderground v.1.15,2013-01-31 16:54:00,
2013-01-31 11:56:00,71.0,62.7,30.08,WNW,301,4.0,12.0,75,0.00,,,0.00,Wunderground v.1.15,2013-01-31 16:56:00,
2013-01-31 11:57:00,71.2,62.9,30.08,NW,316,10.0,12.0,75,0.00,,,0.00,Wunderground v.1.15,2013-01-31 16:57:00,
2013-01-31 11:59:00,71.3,62.2,30.08,WNW,295,4.0,12.0,73,0.00,,,0.00,Wunderground v.1.15,2013-01-31 16:59:00,
2013-01-31 12:01:00,71.5,62.4,30.08,West,278,5.0,10.0,73,0.00,,,0.00,Wunderground v.1.15,2013-01-31 17:01:00,
2013-01-31 12:02:00,71.5,62.4,30.08,WNW,294,2.0,10.0,73,0.00,,,0.00,Wunderground v.1.15,2013-01-31 17:02:00,
2013-01-31 12:04:00,71.6,62.5,30.08,WNW,289,6.0,10.0,73,0.00,,,0.00,Wunderground v.1.15,2013-01-31 17:04:00,
2013-01-31 12:05:00,71.7,62.6,30.08,West,275,2.0,10.0,73,0.00,,,0.00,Wunderground v.1.15,2013-01-31 17:05:00,
2013-01-31 12:06:00,71.8,62.7,30.08,WNW,301,7.0,10.0,73,0.00,,,0.00,Wunderground v.1.15,2013-01-31 17:06:00,
2013-01-31 12:07:00,71.9,62.8,30.08,NW,311,6.0,10.0,73,0.00,,,0.00,Wunderground v.1.15,2013-01-31 17:07:00,
2013-01-31 12:09:00,72.0,62.5,30.08,WNW,284,3.0,10.0,72,0.00,,,0.00,Wunderground v.1.15,2013-01-31 17:09:00,
2013-01-31 12:10:00,72.0,62.5,30.08,WNW,291,2.0,5.0,72,0.00,,,0.00,Wunderground v.1.15,2013-01-31 17:10:00,
2013-01-31 12:11:00,72.0,62.5,30.08,WNW,298,4.0,12.0,72,0.00,,,0.00,Wunderground v.1.15,2013-01-31 17:11:00,
2013-01-31 12:13:00,72.0,62.5,30.07,NNW,342,5.0,12.0,72,0.00,,,0.00,Wunderground v.1.15,2013-01-31 17:13:00,
2013-01-31 12:15:00,72.0,62.1,30.07,West,275,4.0,12.0,71,0.00,,,0.00,Wunderground v.1.15,2013-01-31 17:15:00,
2013-01-31 12:16:00,72.0,62.5,30.07,NW,305,4.0,12.0,72,0.00,,,0.00,Wunderground v.1.15,2013-01-31 17:16:00,
2013-01-31 12:18:00,72.0,62.5,30.07,WNW,302,6.0,12.0,72,0.00,,,0.00,Wunderground v.1.15,2013-01-31 17:18:00,
2013-01-31 12:20:00,72.0,62.5,30.07,WNW,297,3.0,6.0,72,0.00,,,0.00,Wunderground v.1.15,2013-01-31 17:20:00,
2013-01-31 12:21:00,72.0,62.5,30.07,NW,319,5.0,6.0,72,0.00,,,0.00,Wunderground v.1.15,2013-01-31 17:21:00,
2013-01-31 12:23:00,72.0,62.5,30.07,West,267,1.0,7.0,72,0.00,,,0.00,Wunderground v.1.15,2013-01-31 17:23:00,
2013-01-31 12:26:00,71.9,62.0,30.07,WNW,285,4.0,7.0,71,0.00,,,0.00,Wunderground v.1.15,2013-01-31 17:26:00,
2013-01-31 12:27:00,71.9,62.4,30.07,West,266,3.0,9.0,72,0.00,,,0.00,Wunderground v.1.15,2013-01-31 17:27:00,
2013-01-31 12:28:00,71.9,62.4,30.07,West,267,5.0,9.0,72,0.00,,,0.00,Wunderground v.1.15,2013-01-31 17:28:00,
2013-01-31 12:31:00,71.9,62.4,30.07,NW,305,7.0,9.0,72,0.00,,,0.00,Wunderground v.1.15,2013-01-31 17:31:00,
2013-01-31 12:32:00,71.8,61.9,30.06,NNW,327,4.0,10.0,71,0.00,,,0.00,Wunderground v.1.15,2013-01-31 17:32:00,
2013-01-31 12:34:00,71.7,62.2,30.06,NNW,347,5.0,10.0,72,0.00,,,0.00,Wunderground v.1.15,2013-01-31 17:34:00,
2013-01-31 12:36:00,71.6,62.1,30.06,NNW,333,1.0,10.0,72,0.00,,,0.00,Wunderground v.1.15,2013-01-31 17:36:00,
2013-01-31 12:37:00,71.5,62.0,30.06,West,270,7.0,10.0,72,0.00,,,0.00,Wunderground v.1.15,2013-01-31 17:37:00,
2013-01-31 12:39:00,71.6,62.1,30.06,WNW,286,6.0,10.0,72,0.00,,,0.00,Wunderground v.1.15,2013-01-31 17:39:00,
2013-01-31 12:41:00,71.6,62.5,30.06,NW,323,4.0,6.0,73,0.00,,,0.00,Wunderground v.1.15,2013-01-31 17:41:00,
2013-01-31 12:42:00,71.7,62.6,30.06,West,278,5.0,6.0,73,0.00,,,0.00,Wunderground v.1.15,2013-01-31 17:42:00,
2013-01-31 12:43:00,71.7,62.6,30.06,WNW,284,5.0,7.0,73,0.00,,,0.00,Wunderground v.1.15,2013-01-31 17:43:00,
2013-01-31 12:44:00,71.7,62.6,30.06,NNW,336,3.0,10.0,73,0.00,,,0.00,Wunderground v.1.15,2013-01-31 17:44:00,
2013-01-31 12:46:00,71.7,62.2,30.06,West,263,3.0,10.0,72,0.00,,,0.00,Wunderground v.1.15,2013-01-31 17:46:00,
2013-01-31 12:47:00,71.8,62.3,30.06,West,263,7.0,10.0,72,0.00,,,0.00,Wunderground v.1.15,2013-01-31 17:47:00,
2013-01-31 12:48:00,71.8,62.3,30.06,West,277,3.0,10.0,72,0.00,,,0.00,Wunderground v.1.15,2013-01-31 17:48:00,
2013-01-31 12:50:00,71.8,62.3,30.06,NW,314,5.0,7.0,72,0.00,,,0.00,Wunderground v.1.15,2013-01-31 17:50:00,
2013-01-31 12:51:00,71.8,62.3,30.06,WNW,292,4.0,7.0,72,0.00,,,0.00,Wunderground v.1.15,2013-01-31 17:51:00,
2013-01-31 12:53:00,71.9,62.4,30.06,NW,310,5.0,7.0,72,0.00,,,0.00,Wunderground v.1.15,2013-01-31 17:53:00,
2013-01-31 12:55:00,71.9,62.0,30.06,West,278,3.0,9.0,71,0.00,,,0.00,Wunderground v.1.15,2013-01-31 17:55:00,
2013-01-31 12:57:00,71.8,61.9,30.06,NW,314,5.0,9.0,71,0.00,,,0.00,Wunderground v.1.15,2013-01-31 17:57:00,
2013-01-31 12:58:00,71.8,61.9,30.06,NW,320,3.0,10.0,71,0.00,,,0.00,Wunderground v.1.15,2013-01-31 17:58:00,
2013-01-31 13:00:00,71.8,61.5,30.06,West,279,2.0,7.0,70,0.00,,,0.00,Wunderground v.1.15,2013-01-31 18:00:00,
2013-01-31 13:02:00,71.7,61.8,30.06,West,267,2.0,7.0,71,0.00,,,0.00,Wunderground v.1.15,2013-01-31 18:02:00,
2013-01-31 13:03:00,71.7,61.4,30.06,WNW,294,5.0,7.0,70,0.00,,,0.00,Wunderground v.1.15,2013-01-31 18:03:00,
2013-01-31 13:05:00,71.8,61.5,30.06,WNW,294,4.0,7.0,70,0.00,,,0.00,Wunderground v.1.15,2013-01-31 18:05:00,
2013-01-31 13:07:00,71.7,61.0,30.06,WNW,287,6.0,10.0,69,0.00,,,0.00,Wunderground v.1.15,2013-01-31 18:07:00,
2013-01-31 13:08:00,71.7,60.6,30.06,West,281,3.0,10.0,68,0.00,,,0.00,Wunderground v.1.15,2013-01-31 18:08:00,
2013-01-31 13:09:00,71.7,60.6,30.06,West,279,6.0,10.0,68,0.00,,,0.00,Wunderground v.1.15,2013-01-31 18:09:00,
2013-01-31 13:11:00,71.6,60.5,30.06,West,266,5.0,10.0,68,0.00,,,0.00,Wunderground v.1.15,2013-01-31 18:11:00,
2013-01-31 13:13:00,71.4,59.9,30.06,NW,304,6.0,11.0,67,0.00,,,0.00,Wunderground v.1.15,2013-01-31 18:13:00,
2013-01-31 13:14:00,71.3,59.8,30.06,West,275,7.0,11.0,67,0.00,,,0.00,Wunderground v.1.15,2013-01-31 18:14:00,
2013-01-31 13:17:00,71.2,60.1,30.05,WNW,293,2.0,11.0,68,0.00,,,0.00,Wunderground v.1.15,2013-01-31 18:17:00,
2013-01-31 13:18:00,71.2,60.1,30.05,WNW,286,3.0,11.0,68,0.00,,,0.00,Wunderground v.1.15,2013-01-31 18:18:00,
2013-01-31 13:19:00,71.2,60.1,30.05,WNW,291,4.0,11.0,68,0.00,,,0.00,Wunderground v.1.15,2013-01-31 18:19:00,
2013-01-31 13:22:00,71.1,60.0,30.05,NNW,347,3.0,9.0,68,0.00,,,0.00,Wunderground v.1.15,2013-01-31 18:22:00,
2013-01-31 13:24:00,71.1,59.6,30.05,WNW,298,5.0,11.0,67,0.00,,,0.00,Wunderground v.1.15,2013-01-31 18:24:00,
2013-01-31 13:25:00,71.1,59.6,30.04,NW,312,11.0,11.0,67,0.00,,,0.00,Wunderground v.1.15,2013-01-31 18:25:00,
2013-01-31 13:27:00,71.0,59.1,30.04,WNW,289,6.0,11.0,66,0.00,,,0.00,Wunderground v.1.15,2013-01-31 18:27:00,
2013-01-31 13:29:00,71.0,58.6,30.04,WNW,291,5.0,11.0,65,0.00,,,0.00,Wunderground v.1.15,2013-01-31 18:29:00,
2013-01-31 13:30:00,71.0,58.6,30.04,West,277,4.0,5.0,65,0.00,,,0.00,Wunderground v.1.15,2013-01-31 18:30:00,
2013-01-31 13:31:00,70.9,59.0,30.04,WNW,299,4.0,5.0,66,0.00,,,0.00,Wunderground v.1.15,2013-01-31 18:31:00,
2013-01-31 13:33:00,70.9,59.4,30.04,WNW,291,4.0,10.0,67,0.00,,,0.00,Wunderground v.1.15,2013-01-31 18:33:00,
2013-01-31 13:34:00,70.9,59.0,30.04,WNW,282,3.0,10.0,66,0.00,,,0.00,Wunderground v.1.15,2013-01-31 18:34:00,
2013-01-31 13:35:00,70.9,59.0,30.04,WNW,289,4.0,10.0,66,0.00,,,0.00,Wunderground v.1.15,2013-01-31 18:35:00,
2013-01-31 13:36:00,70.9,59.0,30.04,WNW,296,1.0,10.0,66,0.00,,,0.00,Wunderground v.1.15,2013-01-31 18:36:00,
2013-01-31 13:38:00,70.8,58.9,30.04,West,279,4.0,10.0,66,0.00,,,0.00,Wunderground v.1.15,2013-01-31 18:38:00,
2013-01-31 13:40:00,70.8,58.4,30.04,West,279,2.0,4.0,65,0.00,,,0.00,Wunderground v.1.15,2013-01-31 18:40:00,
2013-01-31 13:41:00,70.8,58.4,30.04,West,278,3.0,6.0,65,0.00,,,0.00,Wunderground v.1.15,2013-01-31 18:41:00,
2013-01-31 13:44:00,70.8,58.9,30.04,NNW,332,6.0,8.0,66,0.00,,,0.00,Wunderground v.1.15,2013-01-31 18:44:00,
2013-01-31 13:45:00,70.8,58.4,30.04,NNW,332,4.0,8.0,65,0.00,,,0.00,Wunderground v.1.15,2013-01-31 18:45:00,
2013-01-31 13:46:00,70.8,58.0,30.04,WNW,286,5.0,8.0,64,0.00,,,0.00,Wunderground v.1.15,2013-01-31 18:46:00,
2013-01-31 13:49:00,70.7,57.9,30.04,WNW,293,6.0,9.0,64,0.00,,,0.00,Wunderground v.1.15,2013-01-31 18:49:00,
2013-01-31 13:50:00,70.6,57.8,30.04,WNW,295,2.0,9.0,64,0.00,,,0.00,Wunderground v.1.15,2013-01-31 18:50:00,
2013-01-31 13:51:00,70.6,57.8,30.04,NW,307,6.0,9.0,64,0.00,,,0.00,Wunderground v.1.15,2013-01-31 18:51:00,
2013-01-31 13:52:00,70.5,57.3,30.04,NW,311,4.0,9.0,63,0.00,,,0.00,Wunderground v.1.15,2013-01-31 18:52:00,
2013-01-31 13:54:00,70.4,57.6,30.04,WNW,287,4.0,9.0,64,0.00,,,0.00,Wunderground v.1.15,2013-01-31 18:54:00,
2013-01-31 13:56:00,70.3,57.1,30.04,West,263,11.0,12.0,63,0.00,,,0.00,Wunderground v.1.15,2013-01-31 18:56:00,
2013-01-31 13:57:00,70.2,57.0,30.04,WNW,291,8.0,12.0,63,0.00,,,0.00,Wunderground v.1.15,2013-01-31 18:57:00,
2013-01-31 13:59:00,70.1,57.4,30.04,WNW,289,7.0,12.0,64,0.00,,,0.00,Wunderground v.1.15,2013-01-31 18:59:00,
2013-01-31 14:01:00,70.1,57.4,30.03,NW,317,3.0,6.0,64,0.00,,,0.00,Wunderground v.1.15,2013-01-31 19:01:00,
2013-01-31 14:02:00,70.1,57.4,30.03,NW,310,0.0,6.0,64,0.00,,,0.00,Wunderground v.1.15,2013-01-31 19:02:00,
2013-01-31 14:04:00,70.0,57.3,30.03,NNW,335,3.0,6.0,64,0.00,,,0.00,Wunderground v.1.15,2013-01-31 19:04:00,
2013-01-31 14:06:00,70.0,57.7,30.03,WNW,294,2.0,6.0,65,0.00,,,0.00,Wunderground v.1.15,2013-01-31 19:06:00,
2013-01-31 14:07:00,69.9,57.6,30.03,WNW,295,1.0,6.0,65,0.00,,,0.00,Wunderground v.1.15,2013-01-31 19:07:00,
2013-01-31 14:08:00,70.0,57.7,30.03,West,265,6.0,6.0,65,0.00,,,0.00,Wunderground v.1.15,2013-01-31 19:08:00,
2013-01-31 14:09:00,70.0,57.3,30.03,WNW,283,2.0,8.0,64,0.00,,,0.00,Wunderground v.1.15,2013-01-31 19:09:00,
2013-01-31 14:11:00,70.0,57.3,30.03,WNW,287,4.0,7.0,64,0.00,,,0.00,Wunderground v.1.15,2013-01-31 19:11:00,
2013-01-31 14:12:00,70.1,57.4,30.04,West,273,5.0,7.0,64,0.00,,,0.00,Wunderground v.1.15,2013-01-31 19:12:00,
2013-01-31 14:13:00,70.1,57.8,30.04,West,279,3.0,7.0,65,0.00,,,0.00,Wunderground v.1.15,2013-01-31 19:13:00,
2013-01-31 14:14:00,70.2,57.4,30.04,NW,323,5.0,7.0,64,0.00,,,0.00,Wunderground v.1.15,2013-01-31 19:14:00,
2013-01-31 14:16:00,70.2,57.4,30.04,WNW,294,5.0,7.0,64,0.00,,,0.00,Wunderground v.1.15,2013-01-31 19:16:00,
2013-01-31 14:17:00,70.2,57.4,30.04,NNW,337,1.0,7.0,64,0.00,,,0.00,Wunderground v.1.15,2013-01-31 19:17:00,
2013-01-31 14:18:00,70.3,57.5,30.04,West,265,5.0,7.0,64,0.00,,,0.00,Wunderground v.1.15,2013-01-31 19:18:00,
2013-01-31 14:20:00,70.3,57.5,30.04,West,275,2.0,4.0,64,0.00,,,0.00,Wunderground v.1.15,2013-01-31 19:20:00,
2013-01-31 14:22:00,70.3,57.5,30.04,NW,306,5.0,9.0,64,0.00,,,0.00,Wunderground v.1.15,2013-01-31 19:22:00,
2013-01-31 14:23:00,70.4,57.2,30.04,WNW,295,4.0,9.0,63,0.00,,,0.00,Wunderground v.1.15,2013-01-31 19:23:00,
2013-01-31 14:25:00,70.4,57.6,30.04,West,281,4.0,9.0,64,0.00,,,0.00,Wunderground v.1.15,2013-01-31 19:25:00,
2013-01-31 14:27:00,70.5,57.3,30.04,WNW,295,4.0,9.0,63,0.00,,,0.00,Wunderground v.1.15,2013-01-31 19:27:00,
2013-01-31 14:28:00,70.5,57.7,30.04,WNW,284,4.0,9.0,64,0.00,,,0.00,Wunderground v.1.15,2013-01-31 19:28:00,
2013-01-31 14:30:00,70.6,57.8,30.04,WNW,283,2.0,7.0,64,0.00,,,0.00,Wunderground v.1.15,2013-01-31 19:30:00,
2013-01-31 14:32:00,70.6,57.4,30.04,WNW,300,4.0,7.0,63,0.00,,,0.00,Wunderground v.1.15,2013-01-31 19:32:00,
2013-01-31 14:33:00,70.6,57.8,30.05,WSW,250,5.0,7.0,64,0.00,,,0.00,Wunderground v.1.15,2013-01-31 19:33:00,
2013-01-31 14:36:00,70.7,57.5,30.05,West,279,3.0,11.0,63,0.00,,,0.00,Wunderground v.1.15,2013-01-31 19:36:00,
2013-01-31 14:37:00,70.8,57.6,30.04,West,259,5.0,11.0,63,0.00,,,0.00,Wunderground v.1.15,2013-01-31 19:37:00,
2013-01-31 14:39:00,70.8,57.6,30.04,WSW,248,7.0,11.0,63,0.00,,,0.00,Wunderground v.1.15,2013-01-31 19:39:00,
2013-01-31 14:41:00,70.8,57.6,30.04,WNW,290,2.0,7.0,63,0.00,,,0.00,Wunderground v.1.15,2013-01-31 19:41:00,
2013-01-31 14:42:00,70.8,57.6,30.04,NW,306,3.0,7.0,63,0.00,,,0.00,Wunderground v.1.15,2013-01-31 19:42:00,
2013-01-31 14:44:00,70.7,57.5,30.04,WNW,286,4.0,7.0,63,0.00,,,0.00,Wunderground v.1.15,2013-01-31 19:44:00,
2013-01-31 14:46:00,70.6,57.4,30.04,WNW,303,4.0,9.0,63,0.00,,,0.00,Wunderground v.1.15,2013-01-31 19:46:00,
2013-01-31 14:48:00,70.5,57.3,30.04,NW,310,3.0,9.0,63,0.00,,,0.00,Wunderground v.1.15,2013-01-31 19:48:00,
2013-01-31 14:50:00,70.3,57.5,30.04,NW,309,3.0,6.0,64,0.00,,,0.00,Wunderground v.1.15,2013-01-31 19:50:00,
2013-01-31 14:51:00,70.3,57.5,30.04,WNW,297,5.0,9.0,64,0.00,,,0.00,Wunderground v.1.15,2013-01-31 19:51:00,
2013-01-31 14:53:00,70.2,57.4,30.04,West,267,4.0,9.0,64,0.00,,,0.00,Wunderground v.1.15,2013-01-31 19:53:00,
2013-01-31 14:55:00,70.1,57.4,30.04,WNW,289,4.0,9.0,64,0.00,,,0.00,Wunderground v.1.15,2013-01-31 19:55:00,
2013-01-31 14:56:00,70.0,57.7,30.04,NW,304,6.0,10.0,65,0.00,,,0.00,Wunderground v.1.15,2013-01-31 19:56:00,
2013-01-31 14:58:00,69.9,57.2,30.04,NW,320,3.0,11.0,64,0.00,,,0.00,Wunderground v.1.15,2013-01-31 19:58:00,
2013-01-31 14:59:00,69.9,57.2,30.03,NW,314,4.0,11.0,64,0.00,,,0.00,Wunderground v.1.15,2013-01-31 19:59:00,
2013-01-31 15:00:00,69.8,57.5,30.04,NW,312,4.0,6.0,65,0.00,,,0.00,Wunderground v.1.15,2013-01-31 20:00:00,
2013-01-31 15:02:00,69.7,57.4,30.04,West,276,7.0,7.0,65,0.00,,,0.00,Wunderground v.1.15,2013-01-31 20:02:00,
2013-01-31 15:03:00,69.7,57.4,30.04,NW,307,4.0,7.0,65,0.00,,,0.00,Wunderground v.1.15,2013-01-31 20:03:00,
2013-01-31 15:04:00,69.7,57.4,30.04,WNW,287,4.0,7.0,65,0.00,,,0.00,Wunderground v.1.15,2013-01-31 20:04:00,
2013-01-31 15:05:00,69.6,57.3,30.04,NW,323,5.0,9.0,65,0.00,,,0.00,Wunderground v.1.15,2013-01-31 20:05:00,
2013-01-31 15:07:00,69.5,56.8,30.04,WNW,298,9.0,11.0,64,0.00,,,0.00,Wunderground v.1.15,2013-01-31 20:07:00,
2013-01-31 15:08:00,69.4,56.7,30.04,NW,307,5.0,11.0,64,0.00,,,0.00,Wunderground v.1.15,2013-01-31 20:08:00,
2013-01-31 15:09:00,69.3,56.6,30.04,WNW,300,6.0,11.0,64,0.00,,,0.00,Wunderground v.1.15,2013-01-31 20:09:00,
2013-01-31 15:10:00,69.2,56.5,30.03,NW,323,6.0,10.0,64,0.00,,,0.00,Wunderground v.1.15,2013-01-31 20:10:00,
2013-01-31 15:12:00,69.1,56.8,30.04,NW,314,5.0,10.0,65,0.00,,,0.00,Wunderground v.1.15,2013-01-31 20:12:00,
2013-01-31 15:13:00,69.0,57.2,30.04,WNW,300,11.0,11.0,66,0.00,,,0.00,Wunderground v.1.15,2013-01-31 20:13:00,
2013-01-31 15:15:00,68.9,57.5,30.05,WNW,302,6.0,13.0,67,0.00,,,0.00,Wunderground v.1.15,2013-01-31 20:15:00,
2013-01-31 15:17:00,68.8,57.4,30.05,West,275,9.0,13.0,67,0.00,,,0.00,Wunderground v.1.15,2013-01-31 20:17:00,
2013-01-31 15:18:00,68.7,57.3,30.05,WNW,290,4.0,13.0,67,0.00,,,0.00,Wunderground v.1.15,2013-01-31 20:18:00,
2013-01-31 15:20:00,68.6,57.6,30.05,WNW,287,3.0,7.0,68,0.00,,,0.00,Wunderground v.1.15,2013-01-31 20:20:00,
2013-01-31 15:22:00,68.6,57.6,30.05,West,274,6.0,12.0,68,0.00,,,0.00,Wunderground v.1.15,2013-01-31 20:22:00,
2013-01-31 15:23:00,68.6,57.6,30.05,West,277,3.0,12.0,68,0.00,,,0.00,Wunderground v.1.15,2013-01-31 20:23:00,
2013-01-31 15:25:00,68.5,57.1,30.04,WNW,293,4.0,12.0,67,0.00,,,0.00,Wunderground v.1.15,2013-01-31 20:25:00,
2013-01-31 15:27:00,68.5,57.1,30.05,West,273,10.0,12.0,67,0.00,,,0.00,Wunderground v.1.15,2013-01-31 20:27:00,
2013-01-31 15:29:00,68.5,57.1,30.05,WNW,291,5.0,12.0,67,0.00,,,0.00,Wunderground v.1.15,2013-01-31 20:29:00,
2013-01-31 15:30:00,68.4,57.4,30.05,NW,320,7.0,7.0,68,0.00,,,0.00,Wunderground v.1.15,2013-01-31 20:30:00,
2013-01-31 15:31:00,68.4,57.4,30.05,WNW,290,3.0,7.0,68,0.00,,,0.00,Wunderground v.1.15,2013-01-31 20:31:00,
2013-01-31 15:32:00,68.4,57.8,30.05,WSW,251,2.0,10.0,69,0.00,,,0.00,Wunderground v.1.15,2013-01-31 20:32:00,
2013-01-31 15:34:00,68.4,57.8,30.05,West,276,6.0,10.0,69,0.00,,,0.00,Wunderground v.1.15,2013-01-31 20:34:00,
2013-01-31 15:35:00,68.4,57.8,30.06,WNW,298,4.0,10.0,69,0.00,,,0.00,Wunderground v.1.15,2013-01-31 20:35:00,
2013-01-31 15:36:00,68.4,57.4,30.06,NW,317,5.0,10.0,68,0.00,,,0.00,Wunderground v.1.15,2013-01-31 20:36:00,
2013-01-31 15:38:00,68.4,57.4,30.06,WNW,298,3.0,10.0,68,0.00,,,0.00,Wunderground v.1.15,2013-01-31 20:38:00,
2013-01-31 15:39:00,68.4,57.8,30.06,WNW,302,5.0,10.0,69,0.00,,,0.00,Wunderground v.1.15,2013-01-31 20:39:00,
2013-01-31 15:41:00,68.3,57.7,30.06,WNW,289,11.0,11.0,69,0.00,,,0.00,Wunderground v.1.15,2013-01-31 20:41:00,
2013-01-31 15:42:00,68.3,57.7,30.05,West,260,5.0,11.0,69,0.00,,,0.00,Wunderground v.1.15,2013-01-31 20:42:00,
2013-01-31 15:43:00,68.3,57.3,30.05,West,262,2.0,11.0,68,0.00,,,0.00,Wunderground v.1.15,2013-01-31 20:43:00,
2013-01-31 15:44:00,68.3,57.3,30.05,West,260,12.0,12.0,68,0.00,,,0.00,Wunderground v.1.15,2013-01-31 20:44:00,
2013-01-31 15:46:00,68.3,57.3,30.05,WSW,252,5.0,12.0,68,0.00,,,0.00,Wunderground v.1.15,2013-01-31 20:46:00,
2013-01-31 15:47:00,68.2,57.2,30.05,West,275,5.0,12.0,68,0.00,,,0.00,Wunderground v.1.15,2013-01-31 20:47:00,
2013-01-31 15:49:00,68.2,57.2,30.05,WNW,297,6.0,12.0,68,0.00,,,0.00,Wunderground v.1.15,2013-01-31 20:49:00,
2013-01-31 15:51:00,68.1,57.1,30.05,WNW,289,2.0,10.0,68,0.00,,,0.00,Wunderground v.1.15,2013-01-31 20:51:00,
2013-01-31 15:52:00,68.1,57.5,30.05,NW,306,8.0,10.0,69,0.00,,,0.00,Wunderground v.1.15,2013-01-31 20:52:00,
2013-01-31 15:54:00,68.0,57.0,30.05,WNW,287,5.0,10.0,68,0.00,,,0.00,Wunderground v.1.15,2013-01-31 20:54:00,
2013-01-31 15:56:00,68.0,57.4,30.05,West,269,10.0,10.0,69,0.00,,,0.00,Wunderground v.1.15,2013-01-31 20:56:00,
2013-01-31 15:58:00,68.0,57.0,30.06,West,260,2.0,10.0,68,0.00,,,0.00,Wunderground v.1.15,2013-01-31 20:58:00,
2013-01-31 15:59:00,67.9,56.9,30.06,West,271,5.0,11.0,68,0.00,,,0.00,Wunderground v.1.15,2013-01-31 20:59:00,
2013-01-31 16:00:00,67.9,56.9,30.06,WNW,293,4.0,6.0,68,0.00,,,0.00,Wunderground v.1.15,2013-01-31 21:00:00,
2013-01-31 16:01:00,67.9,56.9,30.06,West,277,3.0,12.0,68,0.00,,,0.00,Wunderground v.1.15,2013-01-31 21:01:00,
2013-01-31 16:03:00,67.9,56.9,30.06,West,273,3.0,12.0,68,0.00,,,0.00,Wunderground v.1.15,2013-01-31 21:03:00,
2013-01-31 16:05:00,67.9,56.9,30.06,WSW,256,6.0,12.0,68,0.00,,,0.00,Wunderground v.1.15,2013-01-31 21:05:00,
2013-01-31 16:06:00,67.9,56.5,30.06,WNW,283,2.0,12.0,67,0.00,,,0.00,Wunderground v.1.15,2013-01-31 21:06:00,
2013-01-31 16:08:00,67.9,56.9,30.06,NW,308,4.0,12.0,68,0.00,,,0.00,Wunderground v.1.15,2013-01-31 21:08:00,
2013-01-31 16:10:00,67.9,56.9,30.06,West,259,1.0,7.0,68,0.00,,,0.00,Wunderground v.1.15,2013-01-31 21:10:00,
2013-01-31 16:12:00,67.9,56.9,30.06,WNW,285,5.0,7.0,68,0.00,,,0.00,Wunderground v.1.15,2013-01-31 21:12:00,
2013-01-31 16:13:00,67.9,56.9,30.06,WNW,289,7.0,10.0,68,0.00,,,0.00,Wunderground v.1.15,2013-01-31 21:13:00,
2013-01-31 16:15:00,67.9,56.9,30.07,WNW,297,3.0,10.0,68,0.00,,,0.00,Wunderground v.1.15,2013-01-31 21:15:00,
2013-01-31 16:17:00,67.9,56.9,30.07,West,277,2.0,10.0,68,0.00,,,0.00,Wunderground v.1.15,2013-01-31 21:17:00,
2013-01-31 16:18:00,67.9,56.9,30.06,West,276,4.0,10.0,68,0.00,,,0.00,Wunderground v.1.15,2013-01-31 21:18:00,
2013-01-31 16:20:00,67.9,56.5,30.06,WNW,301,4.0,6.0,67,0.00,,,0.00,Wunderground v.1.15,2013-01-31 21:20:00,
2013-01-31 16:22:00,67.9,56.5,30.06,WNW,302,2.0,6.0,67,0.00,,,0.00,Wunderground v.1.15,2013-01-31 21:22:00,
2013-01-31 16:24:00,67.9,56.5,30.07,WNW,284,2.0,6.0,67,0.00,,,0.00,Wunderground v.1.15,2013-01-31 21:24:00,
2013-01-31 16:25:00,67.9,56.5,30.07,WNW,294,3.0,7.0,67,0.00,,,0.00,Wunderground v.1.15,2013-01-31 21:25:00,
2013-01-31 16:27:00,67.9,56.1,30.07,WNW,302,6.0,7.0,66,0.00,,,0.00,Wunderground v.1.15,2013-01-31 21:27:00,
2013-01-31 16:29:00,68.0,56.2,30.07,West,266,2.0,10.0,66,0.00,,,0.00,Wunderground v.1.15,2013-01-31 21:29:00,
2013-01-31 16:30:00,68.0,55.4,30.07,West,281,7.0,12.0,64,0.00,,,0.00,Wunderground v.1.15,2013-01-31 21:30:00,
2013-01-31 16:31:00,68.0,55.4,30.07,NW,305,5.0,12.0,64,0.00,,,0.00,Wunderground v.1.15,2013-01-31 21:31:00,
2013-01-31 16:33:00,68.0,54.9,30.07,NW,319,3.0,12.0,63,0.00,,,0.00,Wunderground v.1.15,2013-01-31 21:33:00,
2013-01-31 16:35:00,68.1,54.6,30.07,North,352,4.0,12.0,62,0.00,,,0.00,Wunderground v.1.15,2013-01-31 21:35:00,
2013-01-31 16:37:00,68.0,54.5,30.07,WNW,290,6.0,12.0,62,0.00,,,0.00,Wunderground v.1.15,2013-01-31 21:37:00,
2013-01-31 16:38:00,68.0,53.6,30.07,West,276,6.0,12.0,60,0.00,,,0.00,Wunderground v.1.15,2013-01-31 21:38:00,
2013-01-31 16:40:00,68.0,53.1,30.07,West,281,7.0,10.0,59,0.00,,,0.00,Wunderground v.1.15,2013-01-31 21:40:00,
2013-01-31 16:41:00,68.0,53.1,30.07,WNW,298,6.0,10.0,59,0.00,,,0.00,Wunderground v.1.15,2013-01-31 21:41:00,
2013-01-31 16:42:00,68.0,52.7,30.07,WNW,302,6.0,10.0,58,0.00,,,0.00,Wunderground v.1.15,2013-01-31 21:42:00,
2013-01-31 16:43:00,67.9,53.0,30.07,WNW,282,4.0,10.0,59,0.00,,,0.00,Wunderground v.1.15,2013-01-31 21:43:00,
2013-01-31 16:46:00,67.9,53.5,30.07,West,272,3.0,10.0,60,0.00,,,0.00,Wunderground v.1.15,2013-01-31 21:46:00,
2013-01-31 16:47:00,67.9,53.5,30.07,WSW,244,7.0,10.0,60,0.00,,,0.00,Wunderground v.1.15,2013-01-31 21:47:00,
2013-01-31 16:48:00,67.9,53.5,30.07,WNW,292,7.0,10.0,60,0.00,,,0.00,Wunderground v.1.15,2013-01-31 21:48:00,
2013-01-31 16:51:00,67.9,54.0,30.07,West,281,5.0,7.0,61,0.00,,,0.00,Wunderground v.1.15,2013-01-31 21:51:00,
2013-01-31 16:53:00,67.9,54.0,30.07,WNW,302,5.0,7.0,61,0.00,,,0.00,Wunderground v.1.15,2013-01-31 21:53:00,
2013-01-31 16:54:00,67.9,54.0,30.07,West,264,1.0,7.0,61,0.00,,,0.00,Wunderground v.1.15,2013-01-31 21:54:00,
2013-01-31 16:56:00,67.9,54.4,30.07,NW,305,1.0,9.0,62,0.00,,,0.00,Wunderground v.1.15,2013-01-31 21:56:00,
2013-01-31 16:58:00,67.9,54.0,30.07,WNW,293,3.0,9.0,61,0.00,,,0.00,Wunderground v.1.15,2013-01-31 21:58:00,
2013-01-31 16:59:00,67.9,54.0,30.07,NW,307,4.0,9.0,61,0.00,,,0.00,Wunderground v.1.15,2013-01-31 21:59:00,
2013-01-31 17:01:00,67.9,54.4,30.07,WNW,301,3.0,6.0,62,0.00,,,0.00,Wunderground v.1.15,2013-01-31 22:01:00,
2013-01-31 17:03:00,67.9,54.4,30.07,WNW,287,6.0,8.0,62,0.00,,,0.00,Wunderground v.1.15,2013-01-31 22:03:00,
2013-01-31 17:04:00,67.8,54.3,30.07,NW,304,4.0,11.0,62,0.00,,,0.00,Wunderground v.1.15,2013-01-31 22:04:00,
2013-01-31 17:07:00,67.7,54.2,30.06,West,281,5.0,11.0,62,0.00,,,0.00,Wunderground v.1.15,2013-01-31 22:07:00,
2013-01-31 17:09:00,67.6,54.1,30.07,NNW,347,2.0,11.0,62,0.00,,,0.00,Wunderground v.1.15,2013-01-31 22:09:00,
2013-01-31 17:12:00,67.6,54.1,30.07,NW,316,5.0,10.0,62,0.00,,,0.00,Wunderground v.1.15,2013-01-31 22:12:00,
2013-01-31 17:14:00,67.6,54.1,30.07,WNW,295,2.0,10.0,62,0.00,,,0.00,Wunderground v.1.15,2013-01-31 22:14:00,
2013-01-31 17:17:00,67.6,54.6,30.08,WNW,301,4.0,10.0,63,0.00,,,0.00,Wunderground v.1.15,2013-01-31 22:17:00,
2013-01-31 17:19:00,67.6,54.6,30.08,NW,318,3.0,10.0,63,0.00,,,0.00,Wunderground v.1.15,2013-01-31 22:19:00,
2013-01-31 17:22:00,67.6,54.6,30.08,NW,320,2.0,7.0,63,0.00,,,0.00,Wunderground v.1.15,2013-01-31 22:22:00,
2013-01-31 17:24:00,67.6,54.6,30.08,NW,310,2.0,7.0,63,0.00,,,0.00,Wunderground v.1.15,2013-01-31 22:24:00,
2013-01-31 17:25:00,67.6,54.6,30.08,WNW,285,5.0,7.0,63,0.00,,,0.00,Wunderground v.1.15,2013-01-31 22:25:00,
2013-01-31 17:27:00,67.6,54.6,30.08,NW,306,4.0,7.0,63,0.00,,,0.00,Wunderground v.1.15,2013-01-31 22:27:00,
2013-01-31 17:28:00,67.6,54.6,30.08,NW,305,3.0,7.0,63,0.00,,,0.00,Wunderground v.1.15,2013-01-31 22:28:00,
2013-01-31 17:30:00,67.6,54.6,30.08,WNW,298,4.0,5.0,63,0.00,,,0.00,Wunderground v.1.15,2013-01-31 22:30:00,
2013-01-31 17:32:00,67.6,54.6,30.08,NW,318,2.0,6.0,63,0.00,,,0.00,Wunderground v.1.15,2013-01-31 22:32:00,
2013-01-31 17:34:00,67.6,54.6,30.08,NW,325,3.0,6.0,63,0.00,,,0.00,Wunderground v.1.15,2013-01-31 22:34:00,
2013-01-31 17:35:00,67.6,55.0,30.08,NW,313,3.0,6.0,64,0.00,,,0.00,Wunderground v.1.15,2013-01-31 22:35:00,
2013-01-31 17:37:00,67.6,55.0,30.08,NW,312,4.0,6.0,64,0.00,,,0.00,Wunderground v.1.15,2013-01-31 22:37:00,
2013-01-31 17:39:00,67.5,54.9,30.08,NW,325,6.0,6.0,64,0.00,,,0.00,Wunderground v.1.15,2013-01-31 22:39:00,
2013-01-31 17:41:00,67.5,54.9,30.08,NNW,329,4.0,5.0,64,0.00,,,0.00,Wunderground v.1.15,2013-01-31 22:41:00,
2013-01-31 17:43:00,67.4,54.4,30.08,NNW,337,2.0,6.0,63,0.00,,,0.00,Wunderground v.1.15,2013-01-31 22:43:00,
2013-01-31 17:44:00,67.4,54.8,30.08,NNW,337,2.0,6.0,64,0.00,,,0.00,Wunderground v.1.15,2013-01-31 22:44:00,
2013-01-31 17:46:00,67.3,54.3,30.08,NNW,336,1.0,6.0,63,0.00,,,0.00,Wunderground v.1.15,2013-01-31 22:46:00,
2013-01-31 17:48:00,67.2,54.6,30.08,NNW,337,3.0,6.0,64,0.00,,,0.00,Wunderground v.1.15,2013-01-31 22:48:00,
2013-01-31 17:49:00,67.2,54.2,30.08,NW,306,3.0,6.0,63,0.00,,,0.00,Wunderground v.1.15,2013-01-31 22:49:00,
2013-01-31 17:51:00,67.1,54.5,30.08,NNW,328,4.0,5.0,64,0.00,,,0.00,Wunderground v.1.15,2013-01-31 22:51:00,
2013-01-31 17:52:00,67.1,54.5,30.08,NNW,331,5.0,5.0,64,0.00,,,0.00,Wunderground v.1.15,2013-01-31 22:52:00,
2013-01-31 17:53:00,67.0,54.0,30.08,NNW,342,3.0,5.0,63,0.00,,,0.00,Wunderground v.1.15,2013-01-31 22:53:00,
2013-01-31 17:54:00,67.0,54.4,30.08,NNW,333,1.0,5.0,64,0.00,,,0.00,Wunderground v.1.15,2013-01-31 22:54:00,
2013-01-31 17:56:00,66.9,54.3,30.08,NNW,331,1.0,5.0,64,0.00,,,0.00,Wunderground v.1.15,2013-01-31 22:56:00,
2013-01-31 17:57:00,66.9,54.3,30.08,NNW,331,3.0,5.0,64,0.00,,,0.00,Wunderground v.1.15,2013-01-31 22:57:00,
2013-01-31 17:59:00,66.8,54.2,30.08,NNW,336,1.0,5.0,64,0.00,,,0.00,Wunderground v.1.15,2013-01-31 22:59:00,
2013-01-31 18:01:00,66.7,53.7,30.08,NNW,333,1.0,3.0,63,0.00,,,0.00,Wunderground v.1.15,2013-01-31 23:01:00,
2013-01-31 18:02:00,66.7,54.1,30.08,NNW,332,1.0,3.0,64,0.00,,,0.00,Wunderground v.1.15,2013-01-31 23:02:00,
2013-01-31 18:04:00,66.6,54.0,30.08,NNW,342,3.0,4.0,64,0.00,,,0.00,Wunderground v.1.15,2013-01-31 23:04:00,
2013-01-31 18:07:00,66.5,53.9,30.08,NW,316,5.0,5.0,64,0.00,,,0.00,Wunderground v.1.15,2013-01-31 23:07:00,
2013-01-31 18:08:00,66.5,53.9,30.08,NNW,333,3.0,5.0,64,0.00,,,0.00,Wunderground v.1.15,2013-01-31 23:08:00,
2013-01-31 18:09:00,66.5,53.9,30.08,NNW,330,3.0,5.0,64,0.00,,,0.00,Wunderground v.1.15,2013-01-31 23:09:00,
2013-01-31 18:12:00,66.5,54.4,30.08,NNW,334,4.0,4.0,65,0.00,,,0.00,Wunderground v.1.15,2013-01-31 23:12:00,
2013-01-31 18:13:00,66.5,54.4,30.08,NNW,335,2.0,5.0,65,0.00,,,0.00,Wunderground v.1.15,2013-01-31 23:13:00,
2013-01-31 18:14:00,66.5,54.4,30.08,NNW,333,1.0,5.0,65,0.00,,,0.00,Wunderground v.1.15,2013-01-31 23:14:00,
2013-01-31 18:15:00,66.5,54.4,30.08,NNW,334,1.0,5.0,65,0.00,,,0.00,Wunderground v.1.15,2013-01-31 23:15:00,
2013-01-31 18:17:00,66.5,53.9,30.08,NW,316,0.0,5.0,64,0.00,,,0.00,Wunderground v.1.15,2013-01-31 23:17:00,
2013-01-31 18:19:00,66.5,54.4,30.09,NW,323,4.0,5.0,65,0.00,,,0.00,Wunderground v.1.15,2013-01-31 23:19:00,
2013-01-31 18:20:00,66.5,54.4,30.09,NW,323,2.0,2.0,65,0.00,,,0.00,Wunderground v.1.15,2013-01-31 23:20:00,
2013-01-31 18:22:00,66.4,53.8,30.08,NW,326,1.0,4.0,64,0.00,,,0.00,Wunderground v.1.15,2013-01-31 23:22:00,
2013-01-31 18:24:00,66.4,54.3,30.09,NNW,335,5.0,5.0,65,0.00,,,0.00,Wunderground v.1.15,2013-01-31 23:24:00,
2013-01-31 18:25:00,66.4,54.3,30.09,NW,315,3.0,6.0,65,0.00,,,0.00,Wunderground v.1.15,2013-01-31 23:25:00,
2013-01-31 18:26:00,66.4,53.8,30.09,WNW,288,4.0,6.0,64,0.00,,,0.00,Wunderground v.1.15,2013-01-31 23:26:00,
2013-01-31 18:27:00,66.3,53.8,30.09,WNW,286,3.0,6.0,64,0.00,,,0.00,Wunderground v.1.15,2013-01-31 23:27:00,
2013-01-31 18:29:00,66.3,54.2,30.09,NNW,334,0.0,6.0,65,0.00,,,0.00,Wunderground v.1.15,2013-01-31 23:29:00,
2013-01-31 18:30:00,66.3,54.2,30.09,NNW,334,3.0,4.0,65,0.00,,,0.00,Wunderground v.1.15,2013-01-31 23:30:00,
2013-01-31 18:31:00,66.3,53.8,30.09,WNW,289,2.0,4.0,64,0.00,,,0.00,Wunderground v.1.15,2013-01-31 23:31:00,
2013-01-31 18:33:00,66.3,53.8,30.09,NNW,332,2.0,4.0,64,0.00,,,0.00,Wunderground v.1.15,2013-01-31 23:33:00,
2013-01-31 18:34:00,66.3,53.8,30.09,NNW,333,2.0,4.0,64,0.00,,,0.00,Wunderground v.1.15,2013-01-31 23:34:00,
2013-01-31 18:35:00,66.3,53.8,30.09,NW,319,3.0,4.0,64,0.00,,,0.00,Wunderground v.1.15,2013-01-31 23:35:00,
2013-01-31 18:36:00,66.3,53.8,30.09,NNW,331,2.0,4.0,64,0.00,,,0.00,Wunderground v.1.15,2013-01-31 23:36:00,
2013-01-31 18:38:00,66.3,53.8,30.10,NNW,335,0.0,4.0,64,0.00,,,0.00,Wunderground v.1.15,2013-01-31 23:38:00,
2013-01-31 18:39:00,66.3,53.8,30.09,NNW,335,1.0,4.0,64,0.00,,,0.00,Wunderground v.1.15,2013-01-31 23:39:00,
2013-01-31 18:41:00,66.3,53.8,30.09,NNW,335,0.0,2.0,64,0.00,,,0.00,Wunderground v.1.15,2013-01-31 23:41:00,
2013-01-31 18:42:00,66.3,53.8,30.09,NNW,335,1.0,2.0,64,0.00,,,0.00,Wunderground v.1.15,2013-01-31 23:42:00,
2013-01-31 18:43:00,66.2,53.7,30.09,NNW,335,2.0,2.0,64,0.00,,,0.00,Wunderground v.1.15,2013-01-31 23:43:00,
2013-01-31 18:45:00,66.2,54.1,30.09,NNW,335,0.0,2.0,65,0.00,,,0.00,Wunderground v.1.15,2013-01-31 23:45:00,
2013-01-31 18:46:00,66.2,53.7,30.09,NW,312,4.0,5.0,64,0.00,,,0.00,Wunderground v.1.15,2013-01-31 23:46:00,
2013-01-31 18:47:00,66.2,54.1,30.10,NW,318,5.0,6.0,65,0.00,,,0.00,Wunderground v.1.15,2013-01-31 23:47:00,
2013-01-31 18:49:00,66.2,54.1,30.10,NW,324,0.0,6.0,65,0.00,,,0.00,Wunderground v.1.15,2013-01-31 23:49:00,
2013-01-31 18:50:00,66.2,54.1,30.10,NW,318,3.0,3.0,65,0.00,,,0.00,Wunderground v.1.15,2013-01-31 23:50:00,
2013-01-31 18:51:00,66.2,54.1,30.10,NNW,342,1.0,3.0,65,0.00,,,0.00,Wunderground v.1.15,2013-01-31 23:51:00,
2013-01-31 18:52:00,66.2,54.1,30.10,NNW,342,0.0,3.0,65,0.00,,,0.00,Wunderground v.1.15,2013-01-31 23:52:00,
2013-01-31 18:54:00,66.2,54.1,30.10,NW,311,3.0,3.0,65,0.00,,,0.00,Wunderground v.1.15,2013-01-31 23:54:00,
2013-01-31 18:55:00,66.2,54.1,30.10,NW,309,1.0,3.0,65,0.00,,,0.00,Wunderground v.1.15,2013-01-31 23:55:00,
2013-01-31 18:57:00,66.2,54.5,30.10,NNW,330,3.0,3.0,66,0.00,,,0.00,Wunderground v.1.15,2013-01-31 23:57:00,
2013-01-31 18:59:00,66.2,54.1,30.09,NNW,329,3.0,5.0,65,0.00,,,0.00,Wunderground v.1.15,2013-01-31 23:59:00,
2013-01-31 19:00:00,66.2,54.1,30.09,NNW,336,2.0,2.0,65,0.00,,,0.00,Wunderground v.1.15,2013-02-01 00:00:00,
2013-01-31 19:02:00,66.2,54.1,30.09,NNW,331,2.0,4.0,65,0.00,,,0.00,Wunderground v.1.15,2013-02-01 00:02:00,
2013-01-31 19:04:00,66.2,54.1,30.09,NW,325,2.0,4.0,65,0.00,,,0.00,Wunderground v.1.15,2013-02-01 00:04:00,
2013-01-31 19:05:00,66.1,54.0,30.09,NNW,327,2.0,4.0,65,0.00,,,0.00,Wunderground v.1.15,2013-02-01 00:05:00,
2013-01-31 19:07:00,66.1,54.0,30.09,NNW,335,2.0,4.0,65,0.00,,,0.00,Wunderground v.1.15,2013-02-01 00:07:00,
2013-01-31 19:09:00,66.1,54.0,30.09,NNW,337,2.0,6.0,65,0.00,,,0.00,Wunderground v.1.15,2013-02-01 00:09:00,
2013-01-31 19:11:00,66.1,54.4,30.09,NW,318,2.0,3.0,66,0.00,,,0.00,Wunderground v.1.15,2013-02-01 00:11:00,
2013-01-31 19:12:00,66.1,54.4,30.09,NW,306,2.0,4.0,66,0.00,,,0.00,Wunderground v.1.15,2013-02-01 00:12:00,
2013-01-31 19:14:00,66.1,54.8,30.09,NW,306,0.0,4.0,67,0.00,,,0.00,Wunderground v.1.15,2013-02-01 00:14:00,
2013-01-31 19:16:00,66.2,54.5,30.09,NW,307,1.0,4.0,66,0.00,,,0.00,Wunderground v.1.15,2013-02-01 00:16:00,
2013-01-31 19:17:00,66.2,54.9,30.10,NW,306,2.0,4.0,67,0.00,,,0.00,Wunderground v.1.15,2013-02-01 00:17:00,
2013-01-31 19:18:00,66.2,54.9,30.10,NW,307,1.0,4.0,67,0.00,,,0.00,Wunderground v.1.15,2013-02-01 00:18:00,
2013-01-31 19:19:00,66.2,54.5,30.10,NW,307,0.0,4.0,66,0.00,,,0.00,Wunderground v.1.15,2013-02-01 00:19:00,
2013-01-31 19:21:00,66.2,54.5,30.10,NW,307,0.0,2.0,66,0.00,,,0.00,Wunderground v.1.15,2013-02-01 00:21:00,
2013-01-31 19:23:00,66.2,54.9,30.10,NW,323,1.0,3.0,67,0.00,,,0.00,Wunderground v.1.15,2013-02-01 00:23:00,
2013-01-31 19:24:00,66.2,54.9,30.10,NNW,333,3.0,4.0,67,0.00,,,0.00,Wunderground v.1.15,2013-02-01 00:24:00,
2013-01-31 19:26:00,66.2,54.9,30.10,NNW,333,0.0,4.0,67,0.00,,,0.00,Wunderground v.1.15,2013-02-01 00:26:00,
2013-01-31 19:28:00,66.2,54.9,30.10,NW,324,1.0,4.0,67,0.00,,,0.00,Wunderground v.1.15,2013-02-01 00:28:00,
2013-01-31 19:29:00,66.2,54.9,30.11,NW,325,0.0,4.0,67,0.00,,,0.00,Wunderground v.1.15,2013-02-01 00:29:00,
2013-01-31 19:31:00,66.3,55.4,30.11,NW,325,0.0,1.0,68,0.00,,,0.00,Wunderground v.1.15,2013-02-01 00:31:00,
2013-01-31 19:33:00,66.3,55.0,30.11,NW,325,0.0,1.0,67,0.00,,,0.00,Wunderground v.1.15,2013-02-01 00:33:00,
2013-01-31 19:34:00,66.3,55.0,30.11,NW,325,0.0,1.0,67,0.00,,,0.00,Wunderground v.1.15,2013-02-01 00:34:00,
2013-01-31 19:35:00,66.3,55.0,30.11,NW,325,0.0,1.0,67,0.00,,,0.00,Wunderground v.1.15,2013-02-01 00:35:00,
2013-01-31 19:36:00,66.3,55.0,30.11,NW,325,1.0,3.0,67,0.00,,,0.00,Wunderground v.1.15,2013-02-01 00:36:00,
2013-01-31 19:38:00,66.3,55.0,30.11,NW,325,1.0,3.0,67,0.00,,,0.00,Wunderground v.1.15,2013-02-01 00:38:00,
2013-01-31 19:39:00,66.3,55.4,30.11,NW,325,0.0,3.0,68,0.00,,,0.00,Wunderground v.1.15,2013-02-01 00:39:00,
2013-01-31 19:40:00,66.3,55.4,30.11,NW,325,0.0,1.0,68,0.00,,,0.00,Wunderground v.1.15,2013-02-01 00:40:00,
2013-01-31 19:42:00,66.4,55.5,30.10,NW,324,0.0,2.0,68,0.00,,,0.00,Wunderground v.1.15,2013-02-01 00:42:00,
2013-01-31 19:43:00,66.4,55.5,30.11,NW,325,0.0,2.0,68,0.00,,,0.00,Wunderground v.1.15,2013-02-01 00:43:00,
2013-01-31 19:44:00,66.4,55.5,30.11,NW,324,0.0,2.0,68,0.00,,,0.00,Wunderground v.1.15,2013-02-01 00:44:00,
2013-01-31 19:45:00,66.4,55.5,30.11,NW,325,1.0,2.0,68,0.00,,,0.00,Wunderground v.1.15,2013-02-01 00:45:00,
2013-01-31 19:47:00,66.4,55.1,30.11,NW,324,1.0,2.0,67,0.00,,,0.00,Wunderground v.1.15,2013-02-01 00:47:00,
2013-01-31 19:49:00,66.4,55.5,30.11,NW,325,0.0,2.0,68,0.00,,,0.00,Wunderground v.1.15,2013-02-01 00:49:00,
2013-01-31 19:50:00,66.4,55.5,30.11,NW,324,0.0,0.0,68,0.00,,,0.00,Wunderground v.1.15,2013-02-01 00:50:00,
2013-01-31 19:52:00,66.4,55.5,30.11,NW,325,0.0,1.0,68,0.00,,,0.00,Wunderground v.1.15,2013-02-01 00:52:00,
2013-01-31 19:54:00,66.4,55.5,30.11,NW,325,0.0,2.0,68,0.00,,,0.00,Wunderground v.1.15,2013-02-01 00:54:00,
2013-01-31 19:55:00,66.4,55.5,30.11,NW,325,0.0,2.0,68,0.00,,,0.00,Wunderground v.1.15,2013-02-01 00:55:00,
2013-01-31 19:57:00,66.4,55.1,30.11,NW,325,0.0,2.0,67,0.00,,,0.00,Wunderground v.1.15,2013-02-01 00:57:00,
2013-01-31 20:00:00,66.4,55.1,30.11,NW,324,0.0,0.0,67,0.00,,,0.00,Wunderground v.1.15,2013-02-01 01:00:00,
2013-01-31 20:01:00,66.3,55.0,30.11,NW,325,0.0,0.0,67,0.00,,,0.00,Wunderground v.1.15,2013-02-01 01:01:00,
2013-01-31 20:03:00,66.3,55.0,30.11,NW,325,0.0,0.0,67,0.00,,,0.00,Wunderground v.1.15,2013-02-01 01:03:00,
2013-01-31 20:05:00,66.3,55.0,30.11,NW,324,0.0,0.0,67,0.00,,,0.00,Wunderground v.1.15,2013-02-01 01:05:00,
2013-01-31 20:06:00,66.3,55.0,30.11,NW,324,0.0,0.0,67,0.00,,,0.00,Wunderground v.1.15,2013-02-01 01:06:00,
2013-01-31 20:08:00,66.3,55.0,30.12,NW,324,0.0,0.0,67,0.00,,,0.00,Wunderground v.1.15,2013-02-01 01:08:00,
2013-01-31 20:10:00,66.3,55.4,30.12,NW,324,0.0,0.0,68,0.00,,,0.00,Wunderground v.1.15,2013-02-01 01:10:00,
2013-01-31 20:11:00,66.2,55.3,30.12,NW,325,0.0,0.0,68,0.00,,,0.00,Wunderground v.1.15,2013-02-01 01:11:00,
2013-01-31 20:13:00,66.2,55.3,30.12,NW,325,0.0,0.0,68,0.00,,,0.00,Wunderground v.1.15,2013-02-01 01:13:00,
2013-01-31 20:15:00,66.2,55.7,30.12,NW,325,0.0,1.0,69,0.00,,,0.00,Wunderground v.1.15,2013-02-01 01:15:00,
2013-01-31 20:16:00,66.2,55.7,30.12,NW,325,0.0,1.0,69,0.00,,,0.00,Wunderground v.1.15,2013-02-01 01:16:00,
2013-01-31 20:18:00,66.2,55.3,30.12,NW,325,0.0,1.0,68,0.00,,,0.00,Wunderground v.1.15,2013-02-01 01:18:00,
2013-01-31 20:21:00,66.1,55.6,30.12,NW,324,0.0,0.0,69,0.00,,,0.00,Wunderground v.1.15,2013-02-01 01:21:00,
2013-01-31 20:23:00,66.1,55.2,30.12,NW,325,0.0,1.0,68,0.00,,,0.00,Wunderground v.1.15,2013-02-01 01:23:00,
2013-01-31 20:26:00,66.1,55.6,30.12,NW,325,0.0,1.0,69,0.00,,,0.00,Wunderground v.1.15,2013-02-01 01:26:00,
2013-01-31 20:28:00,66.0,55.1,30.12,NW,325,0.0,2.0,68,0.00,,,0.00,Wunderground v.1.15,2013-02-01 01:28:00,
2013-01-31 20:31:00,66.0,55.5,30.12,NW,325,1.0,2.0,69,0.00,,,0.00,Wunderground v.1.15,2013-02-01 01:31:00,
2013-01-31 20:34:00,65.9,55.4,30.12,NW,325,1.0,2.0,69,0.00,,,0.00,Wunderground v.1.15,2013-02-01 01:34:00,
2013-01-31 20:36:00,65.9,55.4,30.12,NW,325,1.0,2.0,69,0.00,,,0.00,Wunderground v.1.15,2013-02-01 01:36:00,
2013-01-31 20:37:00,65.9,55.8,30.12,NW,321,1.0,3.0,70,0.00,,,0.00,Wunderground v.1.15,2013-02-01 01:37:00,
2013-01-31 20:39:00,65.9,55.8,30.12,NW,321,2.0,3.0,70,0.00,,,0.00,Wunderground v.1.15,2013-02-01 01:39:00,
2013-01-31 20:41:00,65.9,55.8,30.12,WNW,298,2.0,3.0,70,0.00,,,0.00,Wunderground v.1.15,2013-02-01 01:41:00,
2013-01-31 20:42:00,65.9,55.4,30.12,WNW,298,1.0,3.0,69,0.00,,,0.00,Wunderground v.1.15,2013-02-01 01:42:00,
2013-01-31 20:44:00,65.9,55.8,30.12,WNW,283,3.0,3.0,70,0.00,,,0.00,Wunderground v.1.15,2013-02-01 01:44:00,
2013-01-31 20:47:00,65.9,56.2,30.12,WNW,283,1.0,4.0,71,0.00,,,0.00,Wunderground v.1.15,2013-02-01 01:47:00,
2013-01-31 20:50:00,65.9,55.8,30.12,WNW,283,0.0,1.0,70,0.00,,,0.00,Wunderground v.1.15,2013-02-01 01:50:00,
2013-01-31 20:52:00,65.9,55.8,30.12,WNW,283,0.0,2.0,70,0.00,,,0.00,Wunderground v.1.15,2013-02-01 01:52:00,
2013-01-31 20:54:00,65.8,55.7,30.12,WNW,289,1.0,3.0,70,0.00,,,0.00,Wunderground v.1.15,2013-02-01 01:54:00,
2013-01-31 20:55:00,65.8,55.7,30.12,WNW,289,1.0,3.0,70,0.00,,,0.00,Wunderground v.1.15,2013-02-01 01:55:00,
2013-01-31 20:57:00,65.8,55.3,30.12,WNW,287,2.0,3.0,69,0.00,,,0.00,Wunderground v.1.15,2013-02-01 01:57:00,
2013-01-31 20:59:00,65.7,55.2,30.12,WNW,298,4.0,5.0,69,0.00,,,0.00,Wunderground v.1.15,2013-02-01 01:59:00,
2013-01-31 21:00:00,65.7,54.8,30.12,WNW,302,2.0,4.0,68,0.00,,,0.00,Wunderground v.1.15,2013-02-01 02:00:00,
2013-01-31 21:02:00,65.7,54.8,30.13,WNW,294,3.0,5.0,68,0.00,,,0.00,Wunderground v.1.15,2013-02-01 02:02:00,
2013-01-31 21:04:00,65.6,54.8,30.13,NW,308,2.0,5.0,68,0.00,,,0.00,Wunderground v.1.15,2013-02-01 02:04:00,
2013-01-31 21:05:00,65.6,54.8,30.13,WNW,284,2.0,5.0,68,0.00,,,0.00,Wunderground v.1.15,2013-02-01 02:05:00,
2013-01-31 21:07:00,65.6,54.3,30.13,NW,312,2.0,6.0,67,0.00,,,0.00,Wunderground v.1.15,2013-02-01 02:07:00,
2013-01-31 21:08:00,65.6,54.3,30.13,WNW,302,1.0,6.0,67,0.00,,,0.00,Wunderground v.1.15,2013-02-01 02:08:00,
2013-01-31 21:09:00,65.6,54.3,30.13,WNW,302,0.0,6.0,67,0.00,,,0.00,Wunderground v.1.15,2013-02-01 02:09:00,
2013-01-31 21:11:00,65.6,54.3,30.13,WNW,298,2.0,3.0,67,0.00,,,0.00,Wunderground v.1.15,2013-02-01 02:11:00,
2013-01-31 21:12:00,65.6,54.3,30.13,WNW,293,1.0,3.0,67,0.00,,,0.00,Wunderground v.1.15,2013-02-01 02:12:00,
2013-01-31 21:13:00,65.6,54.3,30.13,West,278,2.0,4.0,67,0.00,,,0.00,Wunderground v.1.15,2013-02-01 02:13:00,
2013-01-31 21:14:00,65.6,54.3,30.13,WNW,299,2.0,4.0,67,0.00,,,0.00,Wunderground v.1.15,2013-02-01 02:14:00,
2013-01-31 21:17:00,65.5,54.2,30.13,WNW,293,1.0,5.0,67,0.00,,,0.00,Wunderground v.1.15,2013-02-01 02:17:00,
2013-01-31 21:18:00,65.5,53.8,30.13,NW,313,4.0,5.0,66,0.00,,,0.00,Wunderground v.1.15,2013-02-01 02:18:00,
2013-01-31 21:19:00,65.5,53.8,30.13,WNW,300,3.0,4.0,66,0.00,,,0.00,Wunderground v.1.15,2013-02-01 02:19:00,
2013-01-31 21:22:00,65.4,54.2,30.14,WNW,285,3.0,6.0,67,0.00,,,0.00,Wunderground v.1.15,2013-02-01 02:22:00,
2013-01-31 21:23:00,65.4,54.2,30.13,WNW,293,2.0,6.0,67,0.00,,,0.00,Wunderground v.1.15,2013-02-01 02:23:00,
2013-01-31 21:25:00,65.4,54.2,30.13,WNW,290,3.0,6.0,67,0.00,,,0.00,Wunderground v.1.15,2013-02-01 02:25:00,
2013-01-31 21:27:00,65.3,54.1,30.14,WNW,291,2.0,6.0,67,0.00,,,0.00,Wunderground v.1.15,2013-02-01 02:27:00,
2013-01-31 21:29:00,65.3,54.5,30.14,WNW,289,2.0,6.0,68,0.00,,,0.00,Wunderground v.1.15,2013-02-01 02:29:00,
2013-01-31 21:30:00,65.3,54.5,30.14,WNW,289,2.0,4.0,68,0.00,,,0.00,Wunderground v.1.15,2013-02-01 02:30:00,
2013-01-31 21:32:00,65.3,54.5,30.14,WNW,287,1.0,4.0,68,0.00,,,0.00,Wunderground v.1.15,2013-02-01 02:32:00,
2013-01-31 21:34:00,65.3,54.5,30.14,NW,308,3.0,5.0,68,0.00,,,0.00,Wunderground v.1.15,2013-02-01 02:34:00,
2013-01-31 21:35:00,65.2,54.4,30.14,NW,305,1.0,5.0,68,0.00,,,0.00,Wunderground v.1.15,2013-02-01 02:35:00,
2013-01-31 21:37:00,65.3,54.5,30.14,WNW,302,7.0,7.0,68,0.00,,,0.00,Wunderground v.1.15,2013-02-01 02:37:00,
2013-01-31 21:40:00,65.2,54.4,30.14,WNW,300,2.0,4.0,68,0.00,,,0.00,Wunderground v.1.15,2013-02-01 02:40:00,
2013-01-31 21:42:00,65.2,54.4,30.14,West,275,3.0,8.0,68,0.00,,,0.00,Wunderground v.1.15,2013-02-01 02:42:00,
2013-01-31 21:43:00,65.2,54.4,30.14,WNW,285,2.0,8.0,68,0.00,,,0.00,Wunderground v.1.15,2013-02-01 02:43:00,
2013-01-31 21:45:00,65.1,53.9,30.14,WNW,301,3.0,8.0,67,0.00,,,0.00,Wunderground v.1.15,2013-02-01 02:45:00,
2013-01-31 21:48:00,65.0,52.9,30.14,WNW,300,5.0,9.0,65,0.00,,,0.00,Wunderground v.1.15,2013-02-01 02:48:00,
2013-01-31 21:50:00,64.9,52.8,30.15,WNW,297,5.0,6.0,65,0.00,,,0.00,Wunderground v.1.15,2013-02-01 02:50:00,
2013-01-31 21:51:00,64.9,52.8,30.15,NW,306,5.0,6.0,65,0.00,,,0.00,Wunderground v.1.15,2013-02-01 02:51:00,
2013-01-31 21:53:00,64.9,52.4,30.15,WNW,300,9.0,11.0,64,0.00,,,0.00,Wunderground v.1.15,2013-02-01 02:53:00,
2013-01-31 21:55:00,64.8,51.5,30.15,NW,312,3.0,11.0,62,0.00,,,0.00,Wunderground v.1.15,2013-02-01 02:55:00,
2013-01-31 21:56:00,64.8,51.5,30.15,NW,312,3.0,11.0,62,0.00,,,0.00,Wunderground v.1.15,2013-02-01 02:56:00,
2013-01-31 21:58:00,64.8,51.5,30.15,WNW,297,5.0,11.0,62,0.00,,,0.00,Wunderground v.1.15,2013-02-01 02:58:00,
2013-01-31 22:00:00,64.7,50.9,30.15,WNW,298,4.0,9.0,61,0.00,,,0.00,Wunderground v.1.15,2013-02-01 03:00:00,
2013-01-31 22:01:00,64.7,50.9,30.15,West,278,5.0,9.0,61,0.00,,,0.00,Wunderground v.1.15,2013-02-01 03:01:00,
2013-01-31 22:03:00,64.6,49.9,30.15,NNW,342,4.0,9.0,59,0.00,,,0.00,Wunderground v.1.15,2013-02-01 03:03:00,
2013-01-31 22:04:00,64.6,49.5,30.15,NW,313,3.0,9.0,58,0.00,,,0.00,Wunderground v.1.15,2013-02-01 03:04:00,
2013-01-31 22:05:00,64.5,48.9,30.15,NNW,333,5.0,9.0,57,0.00,,,0.00,Wunderground v.1.15,2013-02-01 03:05:00,
2013-01-31 22:06:00,64.5,48.9,30.15,WNW,300,5.0,9.0,57,0.00,,,0.00,Wunderground v.1.15,2013-02-01 03:06:00,
2013-01-31 22:08:00,64.4,48.4,30.15,WNW,288,10.0,10.0,56,0.00,,,0.00,Wunderground v.1.15,2013-02-01 03:08:00,
2013-01-31 22:09:00,64.4,48.4,30.15,North,352,7.0,10.0,56,0.00,,,0.00,Wunderground v.1.15,2013-02-01 03:09:00,
2013-01-31 22:11:00,64.3,47.8,30.15,NW,324,5.0,11.0,55,0.00,,,0.00,Wunderground v.1.15,2013-02-01 03:11:00,
2013-01-31 22:13:00,64.2,47.7,30.16,North,356,7.0,11.0,55,0.00,,,0.00,Wunderground v.1.15,2013-02-01 03:13:00,
2013-01-31 22:14:00,64.2,47.7,30.15,NW,313,3.0,11.0,55,0.00,,,0.00,Wunderground v.1.15,2013-02-01 03:14:00,
2013-01-31 22:16:00,64.1,47.1,30.15,NW,314,2.0,11.0,54,0.00,,,0.00,Wunderground v.1.15,2013-02-01 03:16:00,
2013-01-31 22:19:00,64.0,47.5,30.16,NW,318,3.0,11.0,55,0.00,,,0.00,Wunderground v.1.15,2013-02-01 03:19:00,
2013-01-31 22:21:00,63.9,47.4,30.16,WNW,298,9.0,10.0,55,0.00,,,0.00,Wunderground v.1.15,2013-02-01 03:21:00,
2013-01-31 22:24:00,63.8,46.8,30.16,WNW,286,5.0,10.0,54,0.00,,,0.00,Wunderground v.1.15,2013-02-01 03:24:00,
2013-01-31 22:26:00,63.6,46.6,30.16,NW,310,3.0,10.0,54,0.00,,,0.00,Wunderground v.1.15,2013-02-01 03:26:00,
2013-01-31 22:29:00,63.6,46.6,30.16,WNW,283,7.0,10.0,54,0.00,,,0.00,Wunderground v.1.15,2013-02-01 03:29:00,
2013-01-31 22:31:00,63.5,46.6,30.16,WNW,302,4.0,7.0,54,0.00,,,0.00,Wunderground v.1.15,2013-02-01 03:31:00,
2013-01-31 22:34:00,63.4,46.9,30.16,NW,306,6.0,9.0,55,0.00,,,0.00,Wunderground v.1.15,2013-02-01 03:34:00,
2013-01-31 22:35:00,63.4,46.5,30.16,NW,311,10.0,10.0,54,0.00,,,0.00,Wunderground v.1.15,2013-02-01 03:35:00,
2013-01-31 22:37:00,63.3,45.9,30.16,NW,310,5.0,10.0,53,0.00,,,0.00,Wunderground v.1.15,2013-02-01 03:37:00,
2013-01-31 22:39:00,63.2,45.3,30.16,WNW,287,5.0,10.0,52,0.00,,,0.00,Wunderground v.1.15,2013-02-01 03:39:00,
2013-01-31 22:40:00,63.2,44.8,30.16,WNW,302,5.0,6.0,51,0.00,,,0.00,Wunderground v.1.15,2013-02-01 03:40:00,
2013-01-31 22:42:00,63.1,45.2,30.16,WNW,284,5.0,9.0,52,0.00,,,0.00,Wunderground v.1.15,2013-02-01 03:42:00,
2013-01-31 22:44:00,63.0,45.1,30.16,WNW,290,6.0,11.0,52,0.00,,,0.00,Wunderground v.1.15,2013-02-01 03:44:00,
2013-01-31 22:45:00,63.0,44.6,30.16,NW,324,3.0,11.0,51,0.00,,,0.00,Wunderground v.1.15,2013-02-01 03:45:00,
2013-01-31 22:47:00,62.9,44.5,30.16,NW,308,5.0,11.0,51,0.00,,,0.00,Wunderground v.1.15,2013-02-01 03:47:00,
2013-01-31 22:50:00,62.9,44.5,30.16,NW,304,4.0,5.0,51,0.00,,,0.00,Wunderground v.1.15,2013-02-01 03:50:00,
2013-01-31 22:52:00,62.7,43.8,30.16,WNW,287,6.0,6.0,50,0.00,,,0.00,Wunderground v.1.15,2013-02-01 03:52:00,
2013-01-31 22:53:00,62.7,44.3,30.16,NW,304,6.0,10.0,51,0.00,,,0.00,Wunderground v.1.15,2013-02-01 03:53:00,
2013-01-31 22:55:00,62.7,44.3,30.16,WNW,287,4.0,10.0,51,0.00,,,0.00,Wunderground v.1.15,2013-02-01 03:55:00,
2013-01-31 22:56:00,62.7,44.3,30.16,WNW,295,3.0,10.0,51,0.00,,,0.00,Wunderground v.1.15,2013-02-01 03:56:00,
2013-01-31 22:57:00,62.6,43.7,30.16,NW,306,5.0,10.0,50,0.00,,,0.00,Wunderground v.1.15,2013-02-01 03:57:00,
2013-01-31 22:58:00,62.6,43.7,30.16,NW,319,3.0,10.0,50,0.00,,,0.00,Wunderground v.1.15,2013-02-01 03:58:00,
2013-01-31 23:01:00,62.5,43.6,30.16,NNW,333,4.0,7.0,50,0.00,,,0.00,Wunderground v.1.15,2013-02-01 04:01:00,
2013-01-31 23:03:00,62.4,43.5,30.16,WNW,298,7.0,7.0,50,0.00,,,0.00,Wunderground v.1.15,2013-02-01 04:03:00,
2013-01-31 23:06:00,62.3,43.4,30.15,WNW,284,6.0,8.0,50,0.00,,,0.00,Wunderground v.1.15,2013-02-01 04:06:00,
2013-01-31 23:08:00,62.2,42.8,30.15,NW,325,7.0,9.0,49,0.00,,,0.00,Wunderground v.1.15,2013-02-01 04:08:00,
2013-01-31 23:11:00,62.2,42.8,30.15,NW,312,3.0,6.0,49,0.00,,,0.00,Wunderground v.1.15,2013-02-01 04:11:00,
2013-01-31 23:13:00,62.1,42.2,30.15,NW,314,5.0,10.0,48,0.00,,,0.00,Wunderground v.1.15,2013-02-01 04:13:00,
2013-01-31 23:16:00,62.0,42.6,30.15,NW,318,3.0,10.0,49,0.00,,,0.00,Wunderground v.1.15,2013-02-01 04:16:00,
2013-01-31 23:19:00,62.0,42.6,30.15,NW,313,3.0,10.0,49,0.00,,,0.00,Wunderground v.1.15,2013-02-01 04:19:00,
2013-01-31 23:21:00,61.9,42.5,30.15,NNW,329,4.0,6.0,49,0.00,,,0.00,Wunderground v.1.15,2013-02-01 04:21:00,
2013-01-31 23:22:00,61.9,42.5,30.15,NNW,329,2.0,6.0,49,0.00,,,0.00,Wunderground v.1.15,2013-02-01 04:22:00,
2013-01-31 23:24:00,61.8,43.0,30.15,NW,313,4.0,6.0,50,0.00,,,0.00,Wunderground v.1.15,2013-02-01 04:24:00,
2013-01-31 23:27:00,61.8,42.4,30.15,NW,312,4.0,6.0,49,0.00,,,0.00,Wunderground v.1.15,2013-02-01 04:27:00,
2013-01-31 23:29:00,61.7,42.3,30.15,WNW,303,4.0,6.0,49,0.00,,,0.00,Wunderground v.1.15,2013-02-01 04:29:00,
2013-01-31 23:32:00,61.7,42.9,30.15,WNW,293,3.0,5.0,50,0.00,,,0.00,Wunderground v.1.15,2013-02-01 04:32:00,
2013-01-31 23:34:00,61.6,42.8,30.15,WNW,289,2.0,5.0,50,0.00,,,0.00,Wunderground v.1.15,2013-02-01 04:34:00,
2013-01-31 23:37:00,61.6,42.8,30.14,WNW,292,6.0,7.0,50,0.00,,,0.00,Wunderground v.1.15,2013-02-01 04:37:00,
2013-01-31 23:38:00,61.5,42.7,30.14,NW,324,4.0,7.0,50,0.00,,,0.00,Wunderground v.1.15,2013-02-01 04:38:00,
2013-01-31 23:39:00,61.5,43.2,30.14,WNW,300,7.0,7.0,51,0.00,,,0.00,Wunderground v.1.15,2013-02-01 04:39:00,
2013-01-31 23:43:00,61.4,42.6,30.15,NW,309,3.0,7.0,50,0.00,,,0.00,Wunderground v.1.15,2013-02-01 04:43:00,
2013-01-31 23:45:00,61.4,42.6,30.14,WNW,301,5.0,7.0,50,0.00,,,0.00,Wunderground v.1.15,2013-02-01 04:45:00,
2013-01-31 23:48:00,61.4,43.1,30.14,NW,316,3.0,7.0,51,0.00,,,0.00,Wunderground v.1.15,2013-02-01 04:48:00,
2013-01-31 23:50:00,61.3,42.5,30.14,NNW,327,3.0,4.0,50,0.00,,,0.00,Wunderground v.1.15,2013-02-01 04:50:00,
2013-01-31 23:53:00,61.2,43.4,30.14,NW,308,3.0,6.0,52,0.00,,,0.00,Wunderground v.1.15,2013-02-01 04:53:00,
2013-01-31 23:54:00,61.2,43.4,30.14,WNW,296,5.0,6.0,52,0.00,,,0.00,Wunderground v.1.15,2013-02-01 04:54:00,
2013-01-31 23:55:00,61.2,43.4,30.14,NW,304,5.0,6.0,52,0.00,,,0.00,Wunderground v.1.15,2013-02-01 04:55:00,
2013-01-31 23:58:00,61.2,43.9,30.14,WNW,291,3.0,6.0,53,0.00,,,0.00,Wunderground v.1.15,2013-02-01 04:58:00,
2013-01-31 23:59:00,61.2,43.9,30.14,NW,316,2.0,6.0,53,0.00,,,0.00,Wunderground v.1.15,2013-02-01 04:59:00,